| time (UTC) | temp F | wind direction | speed MPH | gust MPH | rain 1hr in | rain 24hr in | rain mn in | humidity % | barometer mb |
| 20260904145658 | 92 | 161 | 0.0 | 3.0 | 0.00 | 0.00 | 0.00 | 60 | 1016.6 |
| 20260904145559 | 92 | 209 | 0.0 | 3.0 | 0.00 | 0.00 | 0.00 | 61 | 1016.5 |
| 20260904145159 | 91 | 350 | 0.0 | 2.0 | 0.00 | 0.00 | 0.00 | 61 | 1016.5 |
| 20260904145100 | 91 | 22 | 0.0 | 3.0 | 0.00 | 0.00 | 0.00 | 62 | 1016.6 |
| 20260904144959 | 91 | 184 | 0.0 | 3.0 | 0.00 | 0.00 | 0.00 | 61 | 1016.6 |
| 20260904144859 | 91 | 254 | 0.0 | 3.0 | 0.00 | 0.00 | 0.00 | 61 | 1016.5 |
| 20260904144759 | 91 | 223 | 2.0 | 3.0 | 0.00 | 0.00 | 0.00 | 61 | 1016.6 |
| 20260904144500 | 91 | 350 | 0.0 | 3.0 | 0.00 | 0.00 | 0.00 | 62 | 1016.5 |
| 20260904144359 | 91 | 126 | 0.0 | 3.0 | 0.00 | 0.00 | 0.00 | 61 | 1016.5 |
| 20260904144258 | 91 | 175 | 0.0 | 3.0 | 0.00 | 0.00 | 0.00 | 62 | 1016.5 |
| 20260904144159 | 90 | 284 | 0.0 | 0.0 | 0.00 | 0.00 | 0.00 | 63 | 1016.5 |
| 20260904144059 | 90 | 329 | 0.0 | 0.0 | 0.00 | 0.00 | 0.00 | 63 | 1016.5 |
| 20260904143900 | 90 | 323 | 0.0 | 1.0 | 0.00 | 0.00 | 0.00 | 63 | 1016.5 |
| 20260904143659 | 90 | 325 | 0.0 | 2.0 | 0.00 | 0.00 | 0.00 | 64 | 1016.5 |
| 20260904143559 | 90 | 325 | 0.0 | 3.0 | 0.00 | 0.00 | 0.00 | 65 | 1016.5 |
| 20260904143459 | 89 | 323 | 0.0 | 3.0 | 0.00 | 0.00 | 0.00 | 65 | 1016.5 |
| 20260904143359 | 89 | 323 | 0.0 | 3.0 | 0.00 | 0.00 | 0.00 | 64 | 1016.5 |
| 20260904143259 | 89 | 323 | 0.0 | 5.0 | 0.00 | 0.00 | 0.00 | 64 | 1016.5 |
| 20260904143201 | 89 | 329 | 0.0 | 5.0 | 0.00 | 0.00 | 0.00 | 65 | 1016.4 |
| 20260904143059 | 89 | 143 | 0.0 | 5.0 | 0.00 | 0.00 | 0.00 | 65 | 1016.3 |
| 20260904142959 | 89 | 164 | 0.0 | 5.0 | 0.00 | 0.00 | 0.00 | 64 | 1016.4 |
| 20260904142859 | 89 | 165 | 2.0 | 5.0 | 0.00 | 0.00 | 0.00 | 65 | 1016.4 |
| 20260904142700 | 89 | 131 | 0.0 | 5.0 | 0.00 | 0.00 | 0.00 | 65 | 1016.4 |
| 20260904142559 | 88 | 160 | 0.0 | 5.0 | 0.00 | 0.00 | 0.00 | 65 | 1016.5 |
| 20260904142459 | 88 | 200 | 1.0 | 5.0 | 0.00 | 0.00 | 0.00 | 66 | 1016.5 |
| 20260904142359 | 88 | 173 | 2.0 | 6.0 | 0.00 | 0.00 | 0.00 | 65 | 1016.5 |
| 20260904142259 | 88 | 182 | 2.0 | 6.0 | 0.00 | 0.00 | 0.00 | 65 | 1016.5 |
| 20260904142200 | 88 | 183 | 0.0 | 6.0 | 0.00 | 0.00 | 0.00 | 65 | 1016.5 |
| 20260904141959 | 88 | 187 | 2.0 | 6.0 | 0.00 | 0.00 | 0.00 | 65 | 1016.4 |
| 20260904141859 | 88 | 190 | 0.0 | 6.0 | 0.00 | 0.00 | 0.00 | 66 | 1016.5 |
| 20260904141759 | 88 | 264 | 0.0 | 6.0 | 0.00 | 0.00 | 0.00 | 65 | 1016.4 |
| 20260904141658 | 88 | 210 | 0.0 | 6.0 | 0.00 | 0.00 | 0.00 | 65 | 1016.4 |
| 20260904141600 | 88 | 175 | 3.0 | 6.0 | 0.00 | 0.00 | 0.00 | 65 | 1016.4 |
| 20260904141500 | 88 | 170 | 2.0 | 7.0 | 0.00 | 0.00 | 0.00 | 65 | 1016.4 |
| 20260904141358 | 88 | 106 | 1.0 | 6.0 | 0.00 | 0.00 | 0.00 | 65 | 1016.4 |
| 20260904141258 | 88 | 182 | 2.0 | 6.0 | 0.00 | 0.00 | 0.00 | 65 | 1016.4 |
| 20260904141058 | 88 | 159 | 1.0 | 6.0 | 0.00 | 0.00 | 0.00 | 65 | 1016.4 |
| 20260904141001 | 88 | 169 | 4.0 | 6.0 | 0.00 | 0.00 | 0.00 | 65 | 1016.4 |
| 20260904140859 | 88 | 171 | 0.0 | 6.0 | 0.00 | 0.00 | 0.00 | 65 | 1016.4 |
| 20260904140759 | 88 | 148 | 4.0 | 6.0 | 0.00 | 0.00 | 0.00 | 65 | 1016.3 |
| 20260904140659 | 88 | 183 | 2.0 | 6.0 | 0.00 | 0.00 | 0.00 | 65 | 1016.3 |
| 20260904140559 | 88 | 36 | 0.0 | 4.0 | 0.00 | 0.00 | 0.00 | 65 | 1016.4 |
| 20260904140457 | 88 | 159 | 0.0 | 4.0 | 0.00 | 0.00 | 0.00 | 66 | 1016.3 |
| 20260904140359 | 88 | 171 | 1.0 | 4.0 | 0.00 | 0.00 | 0.00 | 65 | 1016.3 |
| 20260904140258 | 87 | 247 | 1.0 | 3.0 | 0.00 | 0.00 | 0.00 | 66 | 1016.3 |
| 20260904140059 | 87 | 198 | 1.0 | 3.0 | 0.00 | 0.00 | 0.00 | 66 | 1016.3 |
| 20260904140000 | 87 | 198 | 1.0 | 3.0 | 0.00 | 0.00 | 0.00 | 66 | 1016.2 |
| 20260904135859 | 87 | 195 | 2.0 | 3.0 | 0.00 | 0.00 | 0.00 | 67 | 1016.2 |
| 20260904135759 | 87 | 323 | 0.0 | 1.0 | 0.00 | 0.00 | 0.00 | 67 | 1016.3 |
| 20260904135659 | 87 | 306 | 0.0 | 0.0 | 0.00 | 0.00 | 0.00 | 67 | 1016.2 |
| 20260904135558 | 87 | 309 | 0.0 | 0.0 | 0.00 | 0.00 | 0.00 | 67 | 1016.3 |
| 20260904135500 | 86 | 189 | 0.0 | 0.0 | 0.00 | 0.00 | 0.00 | 67 | 1016.2 |
| 20260904135400 | 86 | 173 | 0.0 | 1.0 | 0.00 | 0.00 | 0.00 | 68 | 1016.3 |
| 20260904135259 | 86 | 207 | 0.0 | 2.0 | 0.00 | 0.00 | 0.00 | 67 | 1016.4 |
| 20260904135200 | 86 | 270 | 0.0 | 2.0 | 0.00 | 0.00 | 0.00 | 68 | 1016.3 |
| 20260904135058 | 86 | 302 | 0.0 | 2.0 | 0.00 | 0.00 | 0.00 | 68 | 1016.3 |
| 20260904135001 | 86 | 355 | 0.0 | 2.0 | 0.00 | 0.00 | 0.00 | 68 | 1016.4 |
| 20260904134759 | 86 | 186 | 0.0 | 2.0 | 0.00 | 0.00 | 0.00 | 68 | 1016.4 |
| 20260904134700 | 85 | 173 | 0.0 | 2.0 | 0.00 | 0.00 | 0.00 | 68 | 1016.4 |
| 20260904134600 | 85 | 191 | 0.0 | 2.0 | 0.00 | 0.00 | 0.00 | 69 | 1016.4 |
| 20260904134459 | 85 | 153 | 0.0 | 2.0 | 0.00 | 0.00 | 0.00 | 68 | 1016.3 |
| 20260904134400 | 85 | 194 | 1.0 | 3.0 | 0.00 | 0.00 | 0.00 | 68 | 1016.3 |
| 20260904134259 | 85 | 193 | 1.0 | 3.0 | 0.00 | 0.00 | 0.00 | 69 | 1016.4 |
| 20260904134159 | 85 | 184 | 0.0 | 3.0 | 0.00 | 0.00 | 0.00 | 69 | 1016.4 |
| 20260904134059 | 85 | 161 | 0.0 | 4.0 | 0.00 | 0.00 | 0.00 | 69 | 1016.4 |
| 20260904133958 | 85 | 286 | 0.0 | 4.0 | 0.00 | 0.00 | 0.00 | 69 | 1016.4 |
| 20260904133859 | 85 | 202 | 0.0 | 4.0 | 0.00 | 0.00 | 0.00 | 69 | 1016.5 |
| 20260904133800 | 84 | 243 | 0.0 | 4.0 | 0.00 | 0.00 | 0.00 | 68 | 1016.5 |
| 20260904133700 | 84 | 190 | 0.0 | 4.0 | 0.00 | 0.00 | 0.00 | 69 | 1016.5 |
| 20260904133559 | 84 | 197 | 0.0 | 4.0 | 0.00 | 0.00 | 0.00 | 69 | 1016.5 |
| 20260904133459 | 84 | 167 | 4.0 | 4.0 | 0.00 | 0.00 | 0.00 | 70 | 1016.5 |
| 20260904133359 | 84 | 232 | 0.0 | 4.0 | 0.00 | 0.00 | 0.00 | 70 | 1016.5 |
| 20260904133259 | 84 | 298 | 2.0 | 4.0 | 0.00 | 0.00 | 0.00 | 70 | 1016.5 |
| 20260904133158 | 84 | 214 | 1.0 | 4.0 | 0.00 | 0.00 | 0.00 | 70 | 1016.6 |
| 20260904133059 | 84 | 221 | 0.0 | 4.0 | 0.00 | 0.00 | 0.00 | 70 | 1016.5 |
| 20260904133001 | 84 | 183 | 1.0 | 4.0 | 0.00 | 0.00 | 0.00 | 70 | 1016.5 |
| 20260904132859 | 84 | 186 | 2.0 | 4.0 | 0.00 | 0.00 | 0.00 | 70 | 1016.5 |
| 20260904132559 | 83 | 159 | 0.0 | 4.0 | 0.00 | 0.00 | 0.00 | 71 | 1016.5 |
| 20260904132457 | 83 | 294 | 0.0 | 4.0 | 0.00 | 0.00 | 0.00 | 71 | 1016.5 |
| 20260904132400 | 83 | 214 | 0.0 | 4.0 | 0.00 | 0.00 | 0.00 | 71 | 1016.5 |
| 20260904132301 | 83 | 180 | 4.0 | 5.0 | 0.00 | 0.00 | 0.00 | 71 | 1016.5 |
| 20260904132200 | 83 | 198 | 1.0 | 3.0 | 0.00 | 0.00 | 0.00 | 71 | 1016.5 |
| 20260904132059 | 83 | 190 | 2.0 | 4.0 | 0.00 | 0.00 | 0.00 | 72 | 1016.5 |
| 20260904131959 | 83 | 141 | 0.0 | 0.0 | 0.00 | 0.00 | 0.00 | 73 | 1016.6 |
| 20260904131800 | 82 | 256 | 0.0 | 0.0 | 0.00 | 0.00 | 0.00 | 73 | 1016.5 |
| 20260904131659 | 82 | 170 | 0.0 | 0.0 | 0.00 | 0.00 | 0.00 | 73 | 1016.6 |
| 20260904131559 | 82 | 201 | 0.0 | 0.0 | 0.00 | 0.00 | 0.00 | 73 | 1016.6 |
| 20260904131459 | 82 | 320 | 0.0 | 0.0 | 0.00 | 0.00 | 0.00 | 73 | 1016.6 |
| 20260904131358 | 82 | 340 | 0.0 | 0.0 | 0.00 | 0.00 | 0.00 | 73 | 1016.6 |
| 20260904131300 | 82 | 240 | 0.0 | 0.0 | 0.00 | 0.00 | 0.00 | 73 | 1016.6 |
| 20260904131159 | 82 | 281 | 0.0 | 0.0 | 0.00 | 0.00 | 0.00 | 73 | 1016.6 |
| 20260904131058 | 82 | 277 | 0.0 | 0.0 | 0.00 | 0.00 | 0.00 | 73 | 1016.6 |
| 20260904131000 | 82 | 294 | 0.0 | 0.0 | 0.00 | 0.00 | 0.00 | 73 | 1016.6 |
| 20260904130900 | 82 | 327 | 0.0 | 0.0 | 0.00 | 0.00 | 0.00 | 73 | 1016.6 |
| 20260904130759 | 82 | 324 | 0.0 | 0.0 | 0.00 | 0.00 | 0.00 | 74 | 1016.6 |
| 20260904130700 | 82 | 188 | 0.0 | 0.0 | 0.00 | 0.00 | 0.00 | 74 | 1016.6 |
| 20260904130558 | 82 | 188 | 0.0 | 0.0 | 0.00 | 0.00 | 0.00 | 74 | 1016.6 |
| 20260904130500 | 82 | 217 | 0.0 | 0.0 | 0.00 | 0.00 | 0.00 | 74 | 1016.5 |
| 20260904130359 | 82 | 213 | 0.0 | 0.0 | 0.00 | 0.00 | 0.00 | 74 | 1016.6 |
| 20260904130259 | 82 | 213 | 0.0 | 0.0 | 0.00 | 0.00 | 0.00 | 75 | 1016.6 |
| 20260904130159 | 82 | 205 | 0.0 | 0.0 | 0.00 | 0.00 | 0.00 | 75 | 1016.7 |
| 20260904130059 | 81 | 207 | 0.0 | 0.0 | 0.00 | 0.00 | 0.00 | 75 | 1016.6 |
| 20260904125759 | 81 | 235 | 0.0 | 3.0 | 0.00 | 0.00 | 0.00 | 75 | 1016.7 |
| 20260904125659 | 81 | 173 | 0.0 | 3.0 | 0.00 | 0.00 | 0.00 | 75 | 1016.6 |
| 20260904125600 | 81 | 160 | 0.0 | 3.0 | 0.00 | 0.00 | 0.00 | 75 | 1016.7 |
| 20260904125458 | 81 | 140 | 0.0 | 3.0 | 0.00 | 0.00 | 0.00 | 75 | 1016.7 |
| 20260904125359 | 81 | 134 | 0.0 | 3.0 | 0.00 | 0.00 | 0.00 | 75 | 1016.7 |
| 20260904125259 | 81 | 207 | 0.0 | 3.0 | 0.00 | 0.00 | 0.00 | 76 | 1016.6 |
| 20260904125159 | 81 | 280 | 0.0 | 3.0 | 0.00 | 0.00 | 0.00 | 76 | 1016.7 |
| 20260904125102 | 81 | 311 | 1.0 | 1.0 | 0.00 | 0.00 | 0.00 | 76 | 1016.7 |
| 20260904125000 | 81 | 179 | 0.0 | 0.0 | 0.00 | 0.00 | 0.00 | 76 | 1016.6 |
| 20260904124902 | 80 | 271 | 0.0 | 0.0 | 0.00 | 0.00 | 0.00 | 76 | 1016.7 |
| 20260904124759 | 80 | 279 | 0.0 | 0.0 | 0.00 | 0.00 | 0.00 | 76 | 1016.7 |
| 20260904124659 | 80 | 308 | 0.0 | 0.0 | 0.00 | 0.00 | 0.00 | 76 | 1016.7 |
| 20260904124559 | 80 | 312 | 0.0 | 0.0 | 0.00 | 0.00 | 0.00 | 77 | 1016.7 |
| 20260904124459 | 80 | 320 | 0.0 | 0.0 | 0.00 | 0.00 | 0.00 | 77 | 1016.8 |
| 20260904124359 | 80 | 340 | 0.0 | 0.0 | 0.00 | 0.00 | 0.00 | 77 | 1016.7 |
| 20260904124259 | 80 | 340 | 0.0 | 0.0 | 0.00 | 0.00 | 0.00 | 77 | 1016.7 |
| 20260904124100 | 80 | 340 | 0.0 | 0.0 | 0.00 | 0.00 | 0.00 | 77 | 1016.6 |
| 20260904123959 | 80 | 340 | 0.0 | 0.0 | 0.00 | 0.00 | 0.00 | 77 | 1016.6 |
| 20260904123900 | 80 | 195 | 0.0 | 0.0 | 0.00 | 0.00 | 0.00 | 77 | 1016.6 |
| 20260904123800 | 80 | 194 | 0.0 | 0.0 | 0.00 | 0.00 | 0.00 | 77 | 1016.5 |
| 20260904123659 | 80 | 247 | 0.0 | 0.0 | 0.00 | 0.00 | 0.00 | 78 | 1016.6 |
| 20260904123559 | 80 | 236 | 0.0 | 0.0 | 0.00 | 0.00 | 0.00 | 78 | 1016.4 |
| 20260904123458 | 80 | 277 | 0.0 | 0.0 | 0.00 | 0.00 | 0.00 | 78 | 1016.5 |
| 20260904123358 | 80 | 277 | 0.0 | 0.0 | 0.00 | 0.00 | 0.00 | 78 | 1016.4 |
| 20260904123300 | 80 | 277 | 0.0 | 0.0 | 0.00 | 0.00 | 0.00 | 78 | 1016.5 |
| 20260904123158 | 79 | 277 | 0.0 | 0.0 | 0.00 | 0.00 | 0.00 | 78 | 1016.4 |
| 20260904123058 | 79 | 277 | 0.0 | 0.0 | 0.00 | 0.00 | 0.00 | 78 | 1016.5 |
| 20260904123001 | 79 | 277 | 0.0 | 0.0 | 0.00 | 0.00 | 0.00 | 79 | 1016.4 |
| 20260904122858 | 79 | 277 | 0.0 | 0.0 | 0.00 | 0.00 | 0.00 | 78 | 1016.4 |
| 20260904122759 | 79 | 277 | 0.0 | 0.0 | 0.00 | 0.00 | 0.00 | 78 | 1016.4 |
| 20260904122659 | 79 | 277 | 0.0 | 0.0 | 0.00 | 0.00 | 0.00 | 78 | 1016.4 |
| 20260904122558 | 79 | 277 | 0.0 | 0.0 | 0.00 | 0.00 | 0.00 | 78 | 1016.3 |
| 20260904122400 | 79 | 277 | 0.0 | 0.0 | 0.00 | 0.00 | 0.00 | 78 | 1016.3 |
| 20260904122258 | 79 | 277 | 0.0 | 0.0 | 0.00 | 0.00 | 0.00 | 78 | 1016.3 |
| 20260904122200 | 79 | 277 | 0.0 | 0.0 | 0.00 | 0.00 | 0.00 | 79 | 1016.3 |
| 20260904122059 | 79 | 277 | 0.0 | 0.0 | 0.00 | 0.00 | 0.00 | 78 | 1016.3 |
| 20260904121958 | 79 | 277 | 0.0 | 0.0 | 0.00 | 0.00 | 0.00 | 78 | 1016.3 |
| 20260904121900 | 79 | 277 | 0.0 | 0.0 | 0.00 | 0.00 | 0.00 | 78 | 1016.3 |
| 20260904121800 | 79 | 281 | 0.0 | 0.0 | 0.00 | 0.00 | 0.00 | 79 | 1016.3 |
| 20260904121700 | 79 | 276 | 0.0 | 0.0 | 0.00 | 0.00 | 0.00 | 79 | 1016.3 |
| 20260904121558 | 79 | 242 | 0.0 | 0.0 | 0.00 | 0.00 | 0.00 | 78 | 1016.2 |
| 20260904121458 | 79 | 240 | 0.0 | 0.0 | 0.00 | 0.00 | 0.00 | 79 | 1016.3 |
| 20260904121358 | 79 | 238 | 0.0 | 0.0 | 0.00 | 0.00 | 0.00 | 79 | 1016.3 |
| 20260904121300 | 79 | 238 | 0.0 | 0.0 | 0.00 | 0.00 | 0.00 | 79 | 1016.2 |
| 20260904121158 | 79 | 238 | 0.0 | 0.0 | 0.00 | 0.00 | 0.00 | 79 | 1016.3 |
| 20260904121059 | 79 | 221 | 0.0 | 0.0 | 0.00 | 0.00 | 0.00 | 79 | 1016.3 |
| 20260904120959 | 79 | 197 | 0.0 | 0.0 | 0.00 | 0.00 | 0.00 | 79 | 1016.3 |
| 20260904120900 | 78 | 197 | 0.0 | 0.0 | 0.00 | 0.00 | 0.00 | 79 | 1016.3 |
| 20260904120759 | 78 | 197 | 0.0 | 0.0 | 0.00 | 0.00 | 0.00 | 79 | 1016.3 |
| 20260904120558 | 78 | 209 | 0.0 | 0.0 | 0.00 | 0.00 | 0.00 | 79 | 1016.2 |
| 20260904120359 | 78 | 209 | 0.0 | 0.0 | 0.00 | 0.00 | 0.00 | 79 | 1016.2 |
| 20260904120259 | 78 | 209 | 0.0 | 0.0 | 0.00 | 0.00 | 0.00 | 79 | 1016.2 |
| 20260904120158 | 78 | 270 | 0.0 | 0.0 | 0.00 | 0.00 | 0.00 | 79 | 1016.1 |
| 20260904120100 | 78 | 274 | 0.0 | 0.0 | 0.00 | 0.00 | 0.00 | 79 | 1016.1 |
| 20260904120000 | 78 | 274 | 0.0 | 0.0 | 0.00 | 0.00 | 0.00 | 79 | 1016.0 |
| 20260904115900 | 78 | 274 | 0.0 | 0.0 | 0.00 | 0.00 | 0.00 | 79 | 1016.1 |
| 20260904115758 | 78 | 227 | 0.0 | 0.0 | 0.00 | 0.00 | 0.00 | 79 | 1016.0 |
| 20260904115659 | 78 | 226 | 0.0 | 0.0 | 0.00 | 0.00 | 0.00 | 79 | 1016.1 |
| 20260904115559 | 78 | 226 | 0.0 | 0.0 | 0.00 | 0.00 | 0.00 | 79 | 1016.0 |
| 20260904115458 | 78 | 226 | 0.0 | 0.0 | 0.00 | 0.00 | 0.00 | 79 | 1016.0 |
| 20260904115400 | 78 | 213 | 0.0 | 0.0 | 0.00 | 0.00 | 0.00 | 79 | 1016.0 |
| 20260904115300 | 78 | 213 | 0.0 | 0.0 | 0.00 | 0.00 | 0.00 | 79 | 1016.0 |
| 20260904115158 | 78 | 213 | 0.0 | 0.0 | 0.00 | 0.00 | 0.00 | 79 | 1016.0 |
| 20260904115059 | 78 | 213 | 0.0 | 0.0 | 0.00 | 0.00 | 0.00 | 79 | 1016.0 |
| 20260904114959 | 78 | 176 | 0.0 | 0.0 | 0.00 | 0.00 | 0.00 | 79 | 1016.0 |
| 20260904114759 | 78 | 221 | 0.0 | 0.0 | 0.00 | 0.00 | 0.00 | 79 | 1016.0 |
| 20260904114658 | 78 | 222 | 0.0 | 0.0 | 0.00 | 0.00 | 0.00 | 80 | 1016.0 |
| 20260904114559 | 78 | 222 | 0.0 | 0.0 | 0.00 | 0.00 | 0.00 | 80 | 1016.0 |
| 20260904114458 | 78 | 222 | 0.0 | 0.0 | 0.00 | 0.00 | 0.00 | 80 | 1016.0 |
| 20260904114401 | 78 | 222 | 0.0 | 0.0 | 0.00 | 0.00 | 0.00 | 80 | 1016.0 |
| 20260904114259 | 78 | 222 | 0.0 | 0.0 | 0.00 | 0.00 | 0.00 | 80 | 1016.0 |
| 20260904114158 | 77 | 222 | 0.0 | 0.0 | 0.00 | 0.00 | 0.00 | 80 | 1015.9 |
| 20260904114059 | 77 | 222 | 0.0 | 0.0 | 0.00 | 0.00 | 0.00 | 80 | 1015.9 |
| 20260904114001 | 77 | 222 | 0.0 | 0.0 | 0.00 | 0.00 | 0.00 | 80 | 1016.0 |
| 20260904113900 | 77 | 222 | 0.0 | 0.0 | 0.00 | 0.00 | 0.00 | 80 | 1015.9 |
| 20260904113658 | 77 | 207 | 0.0 | 0.0 | 0.00 | 0.00 | 0.00 | 81 | 1015.9 |
| 20260904113458 | 77 | 246 | 0.0 | 0.0 | 0.00 | 0.00 | 0.00 | 81 | 1015.9 |
| 20260904113359 | 77 | 246 | 0.0 | 0.0 | 0.00 | 0.00 | 0.00 | 81 | 1015.9 |
| 20260904113300 | 77 | 246 | 0.0 | 0.0 | 0.00 | 0.00 | 0.00 | 81 | 1015.9 |
| 20260904113200 | 77 | 246 | 0.0 | 0.0 | 0.00 | 0.00 | 0.00 | 81 | 1015.9 |
| 20260904113059 | 77 | 246 | 0.0 | 0.0 | 0.00 | 0.00 | 0.00 | 81 | 1015.7 |
| 20260904112858 | 77 | 241 | 0.0 | 0.0 | 0.00 | 0.00 | 0.00 | 81 | 1015.7 |
| 20260904112758 | 77 | 254 | 0.0 | 0.0 | 0.00 | 0.00 | 0.00 | 81 | 1015.8 |
| 20260904112658 | 77 | 284 | 0.0 | 0.0 | 0.00 | 0.00 | 0.00 | 81 | 1015.7 |
| 20260904112559 | 77 | 284 | 0.0 | 0.0 | 0.00 | 0.00 | 0.00 | 81 | 1015.7 |
| 20260904112458 | 77 | 284 | 0.0 | 0.0 | 0.00 | 0.00 | 0.00 | 81 | 1015.7 |
| 20260904112358 | 77 | 303 | 0.0 | 0.0 | 0.00 | 0.00 | 0.00 | 81 | 1015.7 |
| 20260904112258 | 77 | 303 | 0.0 | 0.0 | 0.00 | 0.00 | 0.00 | 81 | 1015.7 |
| 20260904112158 | 77 | 303 | 0.0 | 0.0 | 0.00 | 0.00 | 0.00 | 81 | 1015.6 |
| 20260904112000 | 76 | 300 | 0.0 | 0.0 | 0.00 | 0.00 | 0.00 | 81 | 1015.6 |
| 20260904111900 | 76 | 209 | 0.0 | 0.0 | 0.00 | 0.00 | 0.00 | 81 | 1015.6 |
| 20260904111658 | 76 | 209 | 0.0 | 0.0 | 0.00 | 0.00 | 0.00 | 81 | 1015.6 |
| 20260904111558 | 76 | 209 | 0.0 | 0.0 | 0.00 | 0.00 | 0.00 | 81 | 1015.6 |
| 20260904111459 | 76 | 209 | 0.0 | 0.0 | 0.00 | 0.00 | 0.00 | 81 | 1015.6 |
| 20260904111359 | 76 | 205 | 0.0 | 0.0 | 0.00 | 0.00 | 0.00 | 81 | 1015.6 |
| 20260904111258 | 76 | 205 | 0.0 | 0.0 | 0.00 | 0.00 | 0.00 | 81 | 1015.6 |
| 20260904111159 | 76 | 189 | 0.0 | 0.0 | 0.00 | 0.00 | 0.00 | 81 | 1015.5 |
| 20260904111058 | 76 | 187 | 0.0 | 0.0 | 0.00 | 0.00 | 0.00 | 81 | 1015.6 |
| 20260904111001 | 76 | 187 | 0.0 | 0.0 | 0.00 | 0.00 | 0.00 | 81 | 1015.6 |
| 20260904110900 | 76 | 187 | 0.0 | 0.0 | 0.00 | 0.00 | 0.00 | 81 | 1015.5 |
| 20260904110758 | 76 | 187 | 0.0 | 0.0 | 0.00 | 0.00 | 0.00 | 81 | 1015.5 |
| 20260904110658 | 76 | 187 | 0.0 | 0.0 | 0.00 | 0.00 | 0.00 | 82 | 1015.4 |
| 20260904110558 | 76 | 187 | 0.0 | 0.0 | 0.00 | 0.00 | 0.00 | 82 | 1015.4 |
| 20260904110459 | 76 | 187 | 0.0 | 0.0 | 0.00 | 0.00 | 0.00 | 82 | 1015.5 |
| 20260904110358 | 76 | 187 | 0.0 | 0.0 | 0.00 | 0.00 | 0.00 | 82 | 1015.4 |
| 20260904110158 | 76 | 250 | 0.0 | 0.0 | 0.00 | 0.00 | 0.00 | 82 | 1015.4 |
| 20260904110058 | 76 | 250 | 0.0 | 0.0 | 0.00 | 0.00 | 0.00 | 82 | 1015.5 |
| 20260904110001 | 76 | 250 | 0.0 | 0.0 | 0.00 | 0.00 | 0.00 | 82 | 1015.5 |
| 20260904105900 | 76 | 250 | 0.0 | 0.0 | 0.00 | 0.00 | 0.00 | 82 | 1015.4 |
| 20260904105659 | 76 | 250 | 0.0 | 0.0 | 0.00 | 0.00 | 0.00 | 82 | 1015.3 |
| 20260904105358 | 76 | 250 | 0.0 | 0.0 | 0.00 | 0.00 | 0.00 | 82 | 1015.3 |
| 20260904105258 | 76 | 250 | 0.0 | 0.0 | 0.00 | 0.00 | 0.00 | 82 | 1015.3 |
| 20260904105101 | 76 | 250 | 0.0 | 0.0 | 0.00 | 0.00 | 0.00 | 82 | 1015.3 |
| 20260904104859 | 76 | 250 | 0.0 | 0.0 | 0.00 | 0.00 | 0.00 | 82 | 1015.4 |
| 20260904104600 | 76 | 250 | 0.0 | 0.0 | 0.00 | 0.00 | 0.00 | 82 | 1015.3 |
| 20260904104500 | 76 | 250 | 0.0 | 0.0 | 0.00 | 0.00 | 0.00 | 82 | 1015.3 |
| 20260904104358 | 76 | 250 | 0.0 | 0.0 | 0.00 | 0.00 | 0.00 | 82 | 1015.3 |
| 20260904104259 | 76 | 250 | 0.0 | 0.0 | 0.00 | 0.00 | 0.00 | 82 | 1015.3 |
| 20260904104201 | 76 | 250 | 0.0 | 0.0 | 0.00 | 0.00 | 0.00 | 82 | 1015.3 |
| 20260904104058 | 76 | 250 | 0.0 | 0.0 | 0.00 | 0.00 | 0.00 | 81 | 1015.3 |
| 20260904103858 | 76 | 250 | 0.0 | 0.0 | 0.00 | 0.00 | 0.00 | 81 | 1015.3 |
| 20260904103757 | 76 | 250 | 0.0 | 0.0 | 0.00 | 0.00 | 0.00 | 81 | 1015.3 |
| 20260904103559 | 76 | 250 | 0.0 | 0.0 | 0.00 | 0.00 | 0.00 | 81 | 1015.3 |
| 20260904103458 | 76 | 250 | 0.0 | 0.0 | 0.00 | 0.00 | 0.00 | 81 | 1015.3 |
| 20260904103405 | 76 | 250 | 0.0 | 0.0 | 0.00 | 0.00 | 0.00 | 81 | 1015.4 |
| 20260904103258 | 77 | 250 | 0.0 | 0.0 | 0.00 | 0.00 | 0.00 | 81 | 1015.3 |
| 20260904103158 | 77 | 250 | 0.0 | 0.0 | 0.00 | 0.00 | 0.00 | 81 | 1015.4 |
| 20260904102902 | 77 | 250 | 0.0 | 0.0 | 0.00 | 0.00 | 0.00 | 81 | 1015.3 |
| 20260904102758 | 77 | 250 | 0.0 | 0.0 | 0.00 | 0.00 | 0.00 | 81 | 1015.4 |
| 20260904102459 | 77 | 250 | 0.0 | 0.0 | 0.00 | 0.00 | 0.00 | 81 | 1015.2 |
| 20260904102400 | 77 | 250 | 0.0 | 0.0 | 0.00 | 0.00 | 0.00 | 81 | 1015.2 |
| 20260904102259 | 77 | 250 | 0.0 | 0.0 | 0.00 | 0.00 | 0.00 | 81 | 1015.3 |
| 20260904102159 | 77 | 250 | 0.0 | 0.0 | 0.00 | 0.00 | 0.00 | 81 | 1015.3 |
| 20260904102058 | 77 | 250 | 0.0 | 0.0 | 0.00 | 0.00 | 0.00 | 81 | 1015.3 |
| 20260904101959 | 77 | 250 | 0.0 | 0.0 | 0.00 | 0.00 | 0.00 | 81 | 1015.3 |
| 20260904101901 | 77 | 250 | 0.0 | 0.0 | 0.00 | 0.00 | 0.00 | 81 | 1015.3 |
| 20260904101759 | 77 | 250 | 0.0 | 0.0 | 0.00 | 0.00 | 0.00 | 81 | 1015.3 |
| 20260904101658 | 77 | 250 | 0.0 | 0.0 | 0.00 | 0.00 | 0.00 | 81 | 1015.3 |
| 20260904101558 | 77 | 250 | 0.0 | 0.0 | 0.00 | 0.00 | 0.00 | 81 | 1015.3 |
| 20260904101401 | 77 | 250 | 0.0 | 0.0 | 0.00 | 0.00 | 0.00 | 81 | 1015.3 |
| 20260904101302 | 77 | 250 | 0.0 | 0.0 | 0.00 | 0.00 | 0.00 | 81 | 1015.3 |
| 20260904101159 | 77 | 250 | 0.0 | 0.0 | 0.00 | 0.00 | 0.00 | 81 | 1015.3 |
| 20260904101059 | 77 | 250 | 0.0 | 0.0 | 0.00 | 0.00 | 0.00 | 81 | 1015.2 |
| 20260904100959 | 77 | 250 | 0.0 | 0.0 | 0.00 | 0.00 | 0.00 | 81 | 1015.3 |
| 20260904100857 | 77 | 250 | 0.0 | 0.0 | 0.00 | 0.00 | 0.00 | 81 | 1015.3 |
| 20260904100757 | 77 | 250 | 0.0 | 0.0 | 0.00 | 0.00 | 0.00 | 81 | 1015.3 |
| 20260904100600 | 77 | 250 | 0.0 | 0.0 | 0.00 | 0.00 | 0.00 | 81 | 1015.3 |
| 20260904100359 | 77 | 250 | 0.0 | 0.0 | 0.00 | 0.00 | 0.00 | 81 | 1015.2 |
| 20260904100259 | 77 | 250 | 0.0 | 0.0 | 0.00 | 0.00 | 0.00 | 81 | 1015.3 |
| 20260904100159 | 77 | 250 | 0.0 | 0.0 | 0.00 | 0.00 | 0.00 | 81 | 1015.3 |
| 20260904100100 | 77 | 250 | 0.0 | 0.0 | 0.00 | 0.00 | 0.00 | 81 | 1015.3 |
| 20260904100000 | 77 | 250 | 0.0 | 0.0 | 0.00 | 0.00 | 0.00 | 81 | 1015.3 |
| 20260904095858 | 77 | 250 | 0.0 | 0.0 | 0.00 | 0.00 | 0.00 | 81 | 1015.2 |
| 20260904095759 | 77 | 250 | 0.0 | 0.0 | 0.00 | 0.00 | 0.00 | 81 | 1015.3 |
| 20260904095600 | 77 | 250 | 0.0 | 0.0 | 0.00 | 0.00 | 0.00 | 81 | 1015.2 |
| 20260904095359 | 77 | 250 | 0.0 | 0.0 | 0.00 | 0.00 | 0.00 | 81 | 1015.2 |
| 20260904095259 | 77 | 250 | 0.0 | 0.0 | 0.00 | 0.00 | 0.00 | 81 | 1015.2 |
| 20260904095159 | 77 | 250 | 0.0 | 0.0 | 0.00 | 0.00 | 0.00 | 80 | 1015.2 |
| 20260904095101 | 77 | 250 | 0.0 | 0.0 | 0.00 | 0.00 | 0.00 | 80 | 1015.2 |
| 20260904094959 | 77 | 250 | 0.0 | 0.0 | 0.00 | 0.00 | 0.00 | 80 | 1015.2 |
| 20260904094900 | 77 | 250 | 0.0 | 0.0 | 0.00 | 0.00 | 0.00 | 80 | 1015.2 |
| 20260904094759 | 77 | 250 | 0.0 | 0.0 | 0.00 | 0.00 | 0.00 | 80 | 1015.2 |
| 20260904094658 | 77 | 250 | 0.0 | 0.0 | 0.00 | 0.00 | 0.00 | 80 | 1015.2 |
| 20260904094601 | 78 | 250 | 0.0 | 0.0 | 0.00 | 0.00 | 0.00 | 80 | 1015.2 |
| 20260904094458 | 78 | 250 | 0.0 | 0.0 | 0.00 | 0.00 | 0.00 | 80 | 1015.3 |
| 20260904094259 | 78 | 250 | 0.0 | 0.0 | 0.00 | 0.00 | 0.00 | 80 | 1015.2 |
| 20260904094200 | 78 | 250 | 0.0 | 0.0 | 0.00 | 0.00 | 0.00 | 80 | 1015.2 |
| 20260904093858 | 78 | 250 | 0.0 | 0.0 | 0.00 | 0.00 | 0.00 | 80 | 1015.2 |
| 20260904093800 | 78 | 250 | 0.0 | 0.0 | 0.00 | 0.00 | 0.00 | 80 | 1015.2 |
| 20260904093658 | 78 | 250 | 0.0 | 0.0 | 0.00 | 0.00 | 0.00 | 80 | 1015.2 |
| 20260904093559 | 78 | 250 | 0.0 | 0.0 | 0.00 | 0.00 | 0.00 | 80 | 1015.2 |
| 20260904093459 | 78 | 250 | 0.0 | 0.0 | 0.00 | 0.00 | 0.00 | 80 | 1015.2 |
| 20260904093400 | 78 | 250 | 0.0 | 0.0 | 0.00 | 0.00 | 0.00 | 80 | 1015.2 |
| 20260904093300 | 78 | 250 | 0.0 | 0.0 | 0.00 | 0.00 | 0.00 | 80 | 1015.2 |
| 20260904093200 | 78 | 250 | 0.0 | 0.0 | 0.00 | 0.00 | 0.00 | 80 | 1015.2 |
| 20260904093059 | 78 | 250 | 0.0 | 0.0 | 0.00 | 0.00 | 0.00 | 80 | 1015.2 |
| 20260904092958 | 78 | 250 | 0.0 | 0.0 | 0.00 | 0.00 | 0.00 | 80 | 1015.2 |
| 20260904092859 | 78 | 250 | 0.0 | 0.0 | 0.00 | 0.00 | 0.00 | 80 | 1015.1 |
| 20260904092758 | 78 | 250 | 0.0 | 0.0 | 0.00 | 0.00 | 0.00 | 80 | 1015.2 |
| 20260904092658 | 78 | 250 | 0.0 | 0.0 | 0.00 | 0.00 | 0.00 | 80 | 1015.3 |
| 20260904092558 | 78 | 250 | 0.0 | 0.0 | 0.00 | 0.00 | 0.00 | 80 | 1015.2 |
| 20260904092458 | 78 | 250 | 0.0 | 0.0 | 0.00 | 0.00 | 0.00 | 80 | 1015.2 |
| 20260904092359 | 78 | 250 | 0.0 | 0.0 | 0.00 | 0.00 | 0.00 | 80 | 1015.2 |
| 20260904092300 | 78 | 250 | 0.0 | 0.0 | 0.00 | 0.00 | 0.00 | 80 | 1015.3 |
| 20260904092158 | 78 | 250 | 0.0 | 0.0 | 0.00 | 0.00 | 0.00 | 80 | 1015.2 |
| 20260904092100 | 78 | 250 | 0.0 | 0.0 | 0.00 | 0.00 | 0.00 | 80 | 1015.3 |
| 20260904091859 | 78 | 250 | 0.0 | 0.0 | 0.00 | 0.00 | 0.00 | 80 | 1015.3 |
| 20260904091758 | 78 | 250 | 0.0 | 0.0 | 0.00 | 0.00 | 0.00 | 80 | 1015.3 |
| 20260904091658 | 78 | 250 | 0.0 | 0.0 | 0.00 | 0.00 | 0.00 | 80 | 1015.3 |
| 20260904091559 | 78 | 250 | 0.0 | 0.0 | 0.00 | 0.00 | 0.00 | 80 | 1015.3 |
| 20260904091458 | 78 | 250 | 0.0 | 0.0 | 0.00 | 0.00 | 0.00 | 80 | 1015.3 |
| 20260904091358 | 78 | 250 | 0.0 | 0.0 | 0.00 | 0.00 | 0.00 | 80 | 1015.2 |
| 20260904091258 | 78 | 250 | 0.0 | 0.0 | 0.00 | 0.00 | 0.00 | 80 | 1015.3 |
| 20260904091159 | 78 | 250 | 0.0 | 0.0 | 0.00 | 0.00 | 0.00 | 80 | 1015.2 |
| 20260904091058 | 78 | 250 | 0.0 | 0.0 | 0.00 | 0.00 | 0.00 | 80 | 1015.2 |
| 20260904090900 | 78 | 250 | 0.0 | 0.0 | 0.00 | 0.00 | 0.00 | 80 | 1015.3 |
| 20260904090800 | 78 | 250 | 0.0 | 0.0 | 0.00 | 0.00 | 0.00 | 80 | 1015.2 |
| 20260904090658 | 78 | 250 | 0.0 | 0.0 | 0.00 | 0.00 | 0.00 | 80 | 1015.2 |
| 20260904090558 | 78 | 250 | 0.0 | 0.0 | 0.00 | 0.00 | 0.00 | 80 | 1015.3 |
| 20260904090458 | 78 | 250 | 0.0 | 0.0 | 0.00 | 0.00 | 0.00 | 80 | 1015.3 |
| 20260904090259 | 78 | 250 | 0.0 | 0.0 | 0.00 | 0.00 | 0.00 | 80 | 1015.3 |
| 20260904090200 | 78 | 250 | 0.0 | 0.0 | 0.00 | 0.00 | 0.00 | 80 | 1015.3 |
| 20260904090058 | 78 | 250 | 0.0 | 0.0 | 0.00 | 0.00 | 0.00 | 80 | 1015.3 |
| 20260904085958 | 78 | 250 | 0.0 | 0.0 | 0.00 | 0.00 | 0.00 | 80 | 1015.2 |
| 20260904085859 | 78 | 250 | 0.0 | 0.0 | 0.00 | 0.00 | 0.00 | 80 | 1015.2 |
| 20260904085800 | 78 | 250 | 0.0 | 0.0 | 0.00 | 0.00 | 0.00 | 80 | 1015.2 |
| 20260904085659 | 78 | 250 | 0.0 | 0.0 | 0.00 | 0.00 | 0.00 | 80 | 1015.2 |
| 20260904085458 | 78 | 250 | 0.0 | 0.0 | 0.00 | 0.00 | 0.00 | 80 | 1015.2 |
| 20260904085358 | 78 | 250 | 0.0 | 0.0 | 0.00 | 0.00 | 0.00 | 80 | 1015.3 |
| 20260904085300 | 78 | 250 | 0.0 | 0.0 | 0.00 | 0.00 | 0.00 | 80 | 1015.2 |
| 20260904085158 | 78 | 250 | 0.0 | 0.0 | 0.00 | 0.00 | 0.00 | 80 | 1015.3 |
| 20260904085058 | 78 | 250 | 0.0 | 0.0 | 0.00 | 0.00 | 0.00 | 80 | 1015.3 |
| 20260904085000 | 78 | 250 | 0.0 | 0.0 | 0.00 | 0.00 | 0.00 | 80 | 1015.3 |
| 20260904084859 | 78 | 250 | 0.0 | 0.0 | 0.00 | 0.00 | 0.00 | 80 | 1015.2 |
| 20260904084800 | 78 | 250 | 0.0 | 0.0 | 0.00 | 0.00 | 0.00 | 80 | 1015.2 |
| 20260904084658 | 78 | 250 | 0.0 | 0.0 | 0.00 | 0.00 | 0.00 | 80 | 1015.2 |
| 20260904084559 | 78 | 250 | 0.0 | 0.0 | 0.00 | 0.00 | 0.00 | 80 | 1015.3 |
| 20260904084458 | 78 | 250 | 0.0 | 0.0 | 0.00 | 0.00 | 0.00 | 80 | 1015.2 |
| 20260904084358 | 78 | 250 | 0.0 | 0.0 | 0.00 | 0.00 | 0.00 | 80 | 1015.3 |
| 20260904084300 | 79 | 250 | 0.0 | 0.0 | 0.00 | 0.00 | 0.00 | 80 | 1015.3 |
| 20260904084158 | 79 | 250 | 0.0 | 0.0 | 0.00 | 0.00 | 0.00 | 80 | 1015.3 |
| 20260904083959 | 79 | 250 | 0.0 | 0.0 | 0.00 | 0.00 | 0.00 | 80 | 1015.2 |
| 20260904083858 | 79 | 250 | 0.0 | 0.0 | 0.00 | 0.00 | 0.00 | 80 | 1015.3 |
| 20260904083800 | 79 | 250 | 0.0 | 0.0 | 0.00 | 0.00 | 0.00 | 80 | 1015.2 |
| 20260904083659 | 79 | 250 | 0.0 | 0.0 | 0.00 | 0.00 | 0.00 | 80 | 1015.2 |
| 20260904083559 | 79 | 250 | 0.0 | 0.0 | 0.00 | 0.00 | 0.00 | 80 | 1015.2 |
| 20260904083458 | 79 | 250 | 0.0 | 0.0 | 0.00 | 0.00 | 0.00 | 80 | 1015.3 |
| 20260904083359 | 79 | 250 | 0.0 | 0.0 | 0.00 | 0.00 | 0.00 | 80 | 1015.3 |
| 20260904083258 | 79 | 250 | 0.0 | 0.0 | 0.00 | 0.00 | 0.00 | 80 | 1015.3 |
| 20260904083200 | 79 | 250 | 0.0 | 0.0 | 0.00 | 0.00 | 0.00 | 80 | 1015.3 |
| 20260904083059 | 79 | 250 | 0.0 | 0.0 | 0.00 | 0.00 | 0.00 | 80 | 1015.3 |
| 20260904083000 | 79 | 250 | 0.0 | 0.0 | 0.00 | 0.00 | 0.00 | 80 | 1015.3 |
| 20260904082859 | 79 | 250 | 0.0 | 0.0 | 0.00 | 0.00 | 0.00 | 80 | 1015.4 |
| 20260904082758 | 79 | 250 | 0.0 | 0.0 | 0.00 | 0.00 | 0.00 | 80 | 1015.3 |
| 20260904082600 | 79 | 250 | 0.0 | 0.0 | 0.00 | 0.00 | 0.00 | 80 | 1015.4 |
| 20260904082459 | 79 | 250 | 0.0 | 0.0 | 0.00 | 0.00 | 0.00 | 80 | 1015.4 |
| 20260904082358 | 79 | 250 | 0.0 | 0.0 | 0.00 | 0.00 | 0.00 | 80 | 1015.3 |
| 20260904082300 | 79 | 250 | 0.0 | 0.0 | 0.00 | 0.00 | 0.00 | 80 | 1015.4 |
| 20260904082158 | 79 | 250 | 0.0 | 0.0 | 0.00 | 0.00 | 0.00 | 80 | 1015.4 |
| 20260904082059 | 79 | 250 | 0.0 | 0.0 | 0.00 | 0.00 | 0.00 | 80 | 1015.4 |
| 20260904081959 | 79 | 250 | 0.0 | 0.0 | 0.00 | 0.00 | 0.00 | 80 | 1015.4 |
| 20260904081858 | 79 | 250 | 0.0 | 0.0 | 0.00 | 0.00 | 0.00 | 79 | 1015.5 |
| 20260904081658 | 79 | 250 | 0.0 | 0.0 | 0.00 | 0.00 | 0.00 | 79 | 1015.4 |
| 20260904081559 | 79 | 250 | 0.0 | 0.0 | 0.00 | 0.00 | 0.00 | 79 | 1015.4 |
| 20260904081459 | 79 | 250 | 0.0 | 0.0 | 0.00 | 0.00 | 0.00 | 79 | 1015.3 |
| 20260904081359 | 79 | 250 | 0.0 | 0.0 | 0.00 | 0.00 | 0.00 | 79 | 1015.3 |
| 20260904081258 | 79 | 250 | 0.0 | 0.0 | 0.00 | 0.00 | 0.00 | 79 | 1015.4 |
| 20260904081158 | 79 | 250 | 0.0 | 0.0 | 0.00 | 0.00 | 0.00 | 79 | 1015.4 |
| 20260904081058 | 79 | 250 | 0.0 | 0.0 | 0.00 | 0.00 | 0.00 | 79 | 1015.5 |
| 20260904080959 | 79 | 250 | 0.0 | 0.0 | 0.00 | 0.00 | 0.00 | 79 | 1015.4 |
| 20260904080800 | 79 | 250 | 0.0 | 0.0 | 0.00 | 0.00 | 0.00 | 79 | 1015.3 |
| 20260904080559 | 79 | 250 | 0.0 | 0.0 | 0.00 | 0.00 | 0.00 | 79 | 1015.5 |
| 20260904080459 | 79 | 250 | 0.0 | 0.0 | 0.00 | 0.00 | 0.00 | 79 | 1015.5 |
| 20260904080359 | 79 | 250 | 0.0 | 0.0 | 0.00 | 0.00 | 0.00 | 79 | 1015.5 |
| 20260904080259 | 79 | 250 | 0.0 | 0.0 | 0.00 | 0.00 | 0.00 | 79 | 1015.4 |
| 20260904080159 | 79 | 250 | 0.0 | 0.0 | 0.00 | 0.00 | 0.00 | 79 | 1015.4 |
| 20260904080058 | 79 | 250 | 0.0 | 0.0 | 0.00 | 0.00 | 0.00 | 79 | 1015.5 |
| 20260904075959 | 79 | 250 | 0.0 | 0.0 | 0.00 | 0.00 | 0.00 | 79 | 1015.5 |
| 20260904075859 | 79 | 250 | 0.0 | 0.0 | 0.00 | 0.00 | 0.00 | 79 | 1015.3 |
| 20260904075758 | 79 | 250 | 0.0 | 0.0 | 0.00 | 0.00 | 0.00 | 79 | 1015.4 |
| 20260904075700 | 79 | 250 | 0.0 | 0.0 | 0.00 | 0.00 | 0.00 | 79 | 1015.3 |
| 20260904075559 | 79 | 250 | 0.0 | 0.0 | 0.00 | 0.00 | 0.00 | 79 | 1015.3 |
| 20260904075358 | 79 | 246 | 0.0 | 0.0 | 0.00 | 0.00 | 0.00 | 79 | 1015.3 |
| 20260904075259 | 79 | 246 | 0.0 | 0.0 | 0.00 | 0.00 | 0.00 | 79 | 1015.3 |
| 20260904075057 | 79 | 246 | 0.0 | 0.0 | 0.00 | 0.00 | 0.00 | 79 | 1015.3 |
| 20260904074958 | 79 | 246 | 0.0 | 0.0 | 0.00 | 0.00 | 0.00 | 79 | 1015.3 |
| 20260904074858 | 79 | 246 | 0.0 | 0.0 | 0.00 | 0.00 | 0.00 | 79 | 1015.4 |
| 20260904074800 | 79 | 246 | 0.0 | 0.0 | 0.00 | 0.00 | 0.00 | 79 | 1015.3 |
| 20260904074700 | 79 | 246 | 0.0 | 0.0 | 0.00 | 0.00 | 0.00 | 79 | 1015.3 |
| 20260904074559 | 79 | 246 | 0.0 | 0.0 | 0.00 | 0.00 | 0.00 | 79 | 1015.4 |
| 20260904074459 | 79 | 246 | 0.0 | 0.0 | 0.00 | 0.00 | 0.00 | 79 | 1015.3 |
| 20260904074401 | 79 | 246 | 0.0 | 0.0 | 0.00 | 0.00 | 0.00 | 79 | 1015.3 |
| 20260904074259 | 79 | 246 | 0.0 | 0.0 | 0.00 | 0.00 | 0.00 | 79 | 1015.4 |
| 20260904074102 | 79 | 246 | 0.0 | 0.0 | 0.00 | 0.00 | 0.00 | 79 | 1015.3 |
| 20260904073959 | 79 | 246 | 0.0 | 0.0 | 0.00 | 0.00 | 0.00 | 79 | 1015.3 |
| 20260904073857 | 79 | 246 | 0.0 | 0.0 | 0.00 | 0.00 | 0.00 | 79 | 1015.3 |
| 20260904073759 | 79 | 246 | 0.0 | 0.0 | 0.00 | 0.00 | 0.00 | 79 | 1015.3 |
| 20260904073659 | 79 | 246 | 0.0 | 0.0 | 0.00 | 0.00 | 0.00 | 79 | 1015.3 |
| 20260904073559 | 79 | 246 | 0.0 | 0.0 | 0.00 | 0.00 | 0.00 | 79 | 1015.3 |
| 20260904073458 | 79 | 246 | 0.0 | 0.0 | 0.00 | 0.00 | 0.00 | 79 | 1015.4 |
| 20260904073359 | 79 | 246 | 0.0 | 0.0 | 0.00 | 0.00 | 0.00 | 79 | 1015.4 |
| 20260904073259 | 79 | 246 | 0.0 | 0.0 | 0.00 | 0.00 | 0.00 | 79 | 1015.4 |
| 20260904073159 | 79 | 246 | 0.0 | 0.0 | 0.00 | 0.00 | 0.00 | 79 | 1015.3 |
| 20260904073058 | 79 | 246 | 0.0 | 0.0 | 0.00 | 0.00 | 0.00 | 79 | 1015.3 |
| 20260904072859 | 79 | 246 | 0.0 | 0.0 | 0.00 | 0.00 | 0.00 | 79 | 1015.4 |
| 20260904072800 | 79 | 246 | 0.0 | 0.0 | 0.00 | 0.00 | 0.00 | 79 | 1015.3 |
| 20260904072659 | 79 | 246 | 0.0 | 0.0 | 0.00 | 0.00 | 0.00 | 79 | 1015.3 |
| 20260904072600 | 78 | 246 | 0.0 | 0.0 | 0.00 | 0.00 | 0.00 | 79 | 1015.3 |
| 20260904072459 | 78 | 246 | 0.0 | 0.0 | 0.00 | 0.00 | 0.00 | 79 | 1015.3 |
| 20260904072359 | 78 | 246 | 0.0 | 0.0 | 0.00 | 0.00 | 0.00 | 79 | 1015.4 |
| 20260904072300 | 78 | 246 | 0.0 | 0.0 | 0.00 | 0.00 | 0.00 | 79 | 1015.4 |
| 20260904072159 | 78 | 246 | 0.0 | 0.0 | 0.00 | 0.00 | 0.00 | 79 | 1015.4 |
| 20260904072100 | 78 | 246 | 0.0 | 0.0 | 0.00 | 0.00 | 0.00 | 79 | 1015.5 |
| 20260904071859 | 78 | 246 | 0.0 | 0.0 | 0.00 | 0.00 | 0.00 | 79 | 1015.4 |
| 20260904071759 | 78 | 246 | 0.0 | 0.0 | 0.00 | 0.00 | 0.00 | 79 | 1015.5 |
| 20260904071700 | 78 | 246 | 0.0 | 0.0 | 0.00 | 0.00 | 0.00 | 80 | 1015.4 |
| 20260904071458 | 78 | 246 | 0.0 | 0.0 | 0.00 | 0.00 | 0.00 | 79 | 1015.5 |
| 20260904071400 | 78 | 246 | 0.0 | 0.0 | 0.00 | 0.00 | 0.00 | 79 | 1015.6 |
| 20260904071258 | 78 | 246 | 0.0 | 0.0 | 0.00 | 0.00 | 0.00 | 79 | 1015.5 |
| 20260904071200 | 78 | 246 | 0.0 | 0.0 | 0.00 | 0.00 | 0.00 | 79 | 1015.5 |
| 20260904070959 | 78 | 246 | 0.0 | 0.0 | 0.00 | 0.00 | 0.00 | 79 | 1015.5 |
| 20260904070858 | 78 | 246 | 0.0 | 0.0 | 0.00 | 0.00 | 0.00 | 79 | 1015.5 |
| 20260904070804 | 78 | 246 | 0.0 | 0.0 | 0.00 | 0.00 | 0.00 | 79 | 1015.5 |
| 20260904070659 | 78 | 246 | 0.0 | 0.0 | 0.00 | 0.00 | 0.00 | 79 | 1015.5 |
| 20260904070558 | 78 | 246 | 0.0 | 0.0 | 0.00 | 0.00 | 0.00 | 79 | 1015.5 |
| 20260904070259 | 78 | 246 | 0.0 | 0.0 | 0.00 | 0.00 | 0.00 | 79 | 1015.5 |
| 20260904070158 | 78 | 246 | 0.0 | 0.0 | 0.00 | 0.00 | 0.00 | 79 | 1015.6 |
| 20260904070058 | 78 | 246 | 0.0 | 0.0 | 0.00 | 0.00 | 0.00 | 79 | 1015.6 |
| 20260904065858 | 78 | 246 | 0.0 | 0.0 | 0.00 | 0.00 | 0.00 | 79 | 1015.6 |
| 20260904065800 | 78 | 246 | 0.0 | 0.0 | 0.00 | 0.00 | 0.00 | 79 | 1015.5 |
| 20260904065658 | 79 | 246 | 0.0 | 0.0 | 0.00 | 0.00 | 0.00 | 79 | 1015.6 |
| 20260904065559 | 79 | 246 | 0.0 | 0.0 | 0.00 | 0.00 | 0.00 | 79 | 1015.6 |
| 20260904065458 | 79 | 246 | 0.0 | 0.0 | 0.00 | 0.00 | 0.00 | 79 | 1015.6 |
| 20260904065259 | 79 | 246 | 0.0 | 0.0 | 0.00 | 0.00 | 0.00 | 79 | 1015.6 |
| 20260904065158 | 79 | 246 | 0.0 | 0.0 | 0.00 | 0.00 | 0.00 | 79 | 1015.6 |
| 20260904065058 | 79 | 246 | 0.0 | 0.0 | 0.00 | 0.00 | 0.00 | 79 | 1015.6 |
| 20260904064858 | 79 | 246 | 0.0 | 0.0 | 0.00 | 0.00 | 0.00 | 79 | 1015.6 |
| 20260904064658 | 79 | 246 | 0.0 | 0.0 | 0.00 | 0.00 | 0.00 | 79 | 1015.6 |
| 20260904064500 | 79 | 246 | 0.0 | 0.0 | 0.00 | 0.00 | 0.00 | 79 | 1015.6 |
| 20260904064359 | 79 | 246 | 0.0 | 0.0 | 0.00 | 0.00 | 0.00 | 79 | 1015.7 |
| 20260904064259 | 79 | 246 | 0.0 | 0.0 | 0.00 | 0.00 | 0.00 | 79 | 1015.7 |
| 20260904064158 | 79 | 246 | 0.0 | 0.0 | 0.00 | 0.00 | 0.00 | 79 | 1015.7 |
| 20260904064058 | 79 | 246 | 0.0 | 0.0 | 0.00 | 0.00 | 0.00 | 79 | 1015.7 |
| 20260904064000 | 79 | 246 | 0.0 | 0.0 | 0.00 | 0.00 | 0.00 | 79 | 1015.6 |
| 20260904063858 | 79 | 246 | 0.0 | 0.0 | 0.00 | 0.00 | 0.00 | 79 | 1015.8 |
| 20260904063659 | 79 | 246 | 0.0 | 0.0 | 0.00 | 0.00 | 0.00 | 79 | 1015.7 |
| 20260904063557 | 79 | 246 | 0.0 | 0.0 | 0.00 | 0.00 | 0.00 | 79 | 1015.8 |
| 20260904063458 | 79 | 246 | 0.0 | 0.0 | 0.00 | 0.00 | 0.00 | 78 | 1015.7 |
| 20260904063359 | 79 | 246 | 0.0 | 0.0 | 0.00 | 0.00 | 0.00 | 78 | 1015.7 |
| 20260904063301 | 79 | 246 | 0.0 | 0.0 | 0.00 | 0.00 | 0.00 | 78 | 1015.8 |
| 20260904063158 | 79 | 246 | 0.0 | 0.0 | 0.00 | 0.00 | 0.00 | 78 | 1015.7 |
| 20260904062958 | 79 | 246 | 0.0 | 0.0 | 0.00 | 0.00 | 0.00 | 79 | 1015.8 |
| 20260904062759 | 79 | 246 | 0.0 | 0.0 | 0.00 | 0.00 | 0.00 | 78 | 1015.8 |
| 20260904062659 | 79 | 246 | 0.0 | 0.0 | 0.00 | 0.00 | 0.00 | 78 | 1015.7 |
| 20260904062559 | 79 | 246 | 0.0 | 0.0 | 0.00 | 0.00 | 0.00 | 78 | 1015.7 |
| 20260904062459 | 79 | 246 | 0.0 | 0.0 | 0.00 | 0.00 | 0.00 | 79 | 1015.8 |
| 20260904062400 | 79 | 246 | 0.0 | 0.0 | 0.00 | 0.00 | 0.00 | 78 | 1015.8 |
| 20260904062259 | 79 | 246 | 0.0 | 0.0 | 0.00 | 0.00 | 0.00 | 78 | 1015.7 |
| 20260904062058 | 79 | 246 | 0.0 | 0.0 | 0.00 | 0.00 | 0.00 | 78 | 1015.7 |
| 20260904062000 | 79 | 246 | 0.0 | 0.0 | 0.00 | 0.00 | 0.00 | 78 | 1015.7 |
| 20260904061859 | 79 | 246 | 0.0 | 0.0 | 0.00 | 0.00 | 0.00 | 78 | 1015.8 |
| 20260904061759 | 79 | 246 | 0.0 | 0.0 | 0.00 | 0.00 | 0.00 | 78 | 1015.8 |
| 20260904061558 | 79 | 246 | 0.0 | 0.0 | 0.00 | 0.00 | 0.00 | 78 | 1015.7 |
| 20260904061458 | 79 | 246 | 0.0 | 0.0 | 0.00 | 0.00 | 0.00 | 78 | 1015.8 |
| 20260904061359 | 79 | 246 | 0.0 | 0.0 | 0.00 | 0.00 | 0.00 | 78 | 1015.7 |
| 20260904061258 | 79 | 246 | 0.0 | 0.0 | 0.00 | 0.00 | 0.00 | 78 | 1015.8 |
| 20260904061159 | 79 | 246 | 0.0 | 0.0 | 0.00 | 0.00 | 0.00 | 78 | 1015.8 |
| 20260904061100 | 79 | 246 | 0.0 | 0.0 | 0.00 | 0.00 | 0.00 | 78 | 1015.8 |
| 20260904060759 | 79 | 246 | 0.0 | 0.0 | 0.00 | 0.00 | 0.00 | 78 | 1015.7 |
| 20260904060701 | 79 | 246 | 0.0 | 0.0 | 0.00 | 0.00 | 0.00 | 78 | 1015.7 |
| 20260904060558 | 79 | 246 | 0.0 | 0.0 | 0.00 | 0.00 | 0.00 | 78 | 1015.9 |
| 20260904060458 | 79 | 246 | 0.0 | 0.0 | 0.00 | 0.00 | 0.00 | 78 | 1015.8 |
| 20260904060359 | 79 | 246 | 0.0 | 0.0 | 0.00 | 0.00 | 0.00 | 78 | 1015.8 |
| 20260904060258 | 79 | 246 | 0.0 | 0.0 | 0.00 | 0.00 | 0.00 | 78 | 1015.8 |
| 20260904060201 | 79 | 246 | 0.0 | 0.0 | 0.00 | 0.00 | 0.00 | 78 | 1015.8 |
| 20260904060059 | 79 | 246 | 0.0 | 0.0 | 0.00 | 0.00 | 0.00 | 78 | 1015.8 |
| 20260904055859 | 79 | 246 | 0.0 | 0.0 | 0.00 | 0.00 | 0.00 | 78 | 1015.8 |
| 20260904055758 | 79 | 246 | 0.0 | 0.0 | 0.00 | 0.00 | 0.00 | 78 | 1015.8 |
| 20260904055656 | 79 | 246 | 0.0 | 0.0 | 0.00 | 0.00 | 0.00 | 78 | 1015.8 |
| 20260904055558 | 79 | 246 | 0.0 | 0.0 | 0.00 | 0.00 | 0.00 | 78 | 1015.8 |
| 20260904055457 | 79 | 246 | 0.0 | 0.0 | 0.00 | 0.00 | 0.00 | 78 | 1015.8 |
| 20260904055356 | 79 | 246 | 0.0 | 0.0 | 0.00 | 0.00 | 0.00 | 78 | 1015.8 |
| 20260904055257 | 79 | 246 | 0.0 | 0.0 | 0.00 | 0.00 | 0.00 | 78 | 1015.8 |
| 20260904055158 | 79 | 246 | 0.0 | 0.0 | 0.00 | 0.00 | 0.00 | 78 | 1015.8 |
| 20260904055058 | 79 | 246 | 0.0 | 0.0 | 0.00 | 0.00 | 0.00 | 78 | 1015.8 |
| 20260904054958 | 79 | 246 | 0.0 | 0.0 | 0.00 | 0.00 | 0.00 | 78 | 1015.8 |
| 20260904054857 | 79 | 246 | 0.0 | 0.0 | 0.00 | 0.00 | 0.00 | 78 | 1015.7 |
| 20260904054758 | 79 | 246 | 0.0 | 0.0 | 0.00 | 0.00 | 0.00 | 78 | 1015.8 |
| 20260904054658 | 79 | 246 | 0.0 | 0.0 | 0.00 | 0.00 | 0.00 | 78 | 1015.8 |
| 20260904054558 | 79 | 246 | 0.0 | 0.0 | 0.00 | 0.00 | 0.00 | 78 | 1015.8 |
| 20260904054457 | 79 | 246 | 0.0 | 0.0 | 0.00 | 0.00 | 0.00 | 78 | 1015.8 |
| 20260904054358 | 79 | 246 | 0.0 | 0.0 | 0.00 | 0.00 | 0.00 | 78 | 1015.8 |
| 20260904054257 | 79 | 246 | 0.0 | 0.0 | 0.00 | 0.00 | 0.00 | 78 | 1015.8 |
| 20260904054157 | 79 | 246 | 0.0 | 0.0 | 0.00 | 0.00 | 0.00 | 78 | 1015.9 |
| 20260904054058 | 79 | 246 | 0.0 | 0.0 | 0.00 | 0.00 | 0.00 | 78 | 1015.8 |
| 20260904053957 | 79 | 246 | 0.0 | 0.0 | 0.00 | 0.00 | 0.00 | 78 | 1015.9 |
| 20260904053758 | 79 | 246 | 0.0 | 0.0 | 0.00 | 0.00 | 0.00 | 78 | 1015.9 |
| 20260904053658 | 79 | 246 | 0.0 | 0.0 | 0.00 | 0.00 | 0.00 | 78 | 1015.9 |
| 20260904053557 | 79 | 246 | 0.0 | 0.0 | 0.00 | 0.00 | 0.00 | 78 | 1015.9 |
| 20260904053457 | 79 | 246 | 0.0 | 0.0 | 0.00 | 0.00 | 0.00 | 78 | 1015.9 |
| 20260904053357 | 79 | 246 | 0.0 | 0.0 | 0.00 | 0.00 | 0.00 | 78 | 1015.9 |
| 20260904053258 | 79 | 246 | 0.0 | 0.0 | 0.00 | 0.00 | 0.00 | 78 | 1015.9 |
| 20260904053157 | 79 | 246 | 0.0 | 0.0 | 0.00 | 0.00 | 0.00 | 78 | 1015.9 |
| 20260904053059 | 79 | 246 | 0.0 | 0.0 | 0.00 | 0.00 | 0.00 | 78 | 1015.9 |
| 20260904052957 | 79 | 246 | 0.0 | 0.0 | 0.00 | 0.00 | 0.00 | 78 | 1015.9 |
| 20260904052857 | 79 | 246 | 0.0 | 0.0 | 0.00 | 0.00 | 0.00 | 78 | 1015.9 |
| 20260904052757 | 79 | 246 | 0.0 | 0.0 | 0.00 | 0.00 | 0.00 | 78 | 1015.9 |
| 20260904052659 | 79 | 246 | 0.0 | 0.0 | 0.00 | 0.00 | 0.00 | 78 | 1015.9 |
| 20260904052559 | 79 | 246 | 0.0 | 0.0 | 0.00 | 0.00 | 0.00 | 78 | 1015.9 |
| 20260904052457 | 79 | 246 | 0.0 | 0.0 | 0.00 | 0.00 | 0.00 | 78 | 1015.9 |
| 20260904052357 | 79 | 246 | 0.0 | 0.0 | 0.00 | 0.00 | 0.00 | 78 | 1015.9 |
| 20260904052258 | 79 | 246 | 0.0 | 0.0 | 0.00 | 0.00 | 0.00 | 78 | 1015.9 |
| 20260904052157 | 79 | 246 | 0.0 | 0.0 | 0.00 | 0.00 | 0.00 | 78 | 1015.8 |
| 20260904052057 | 79 | 246 | 0.0 | 0.0 | 0.00 | 0.00 | 0.00 | 78 | 1015.9 |
| 20260904051957 | 79 | 246 | 0.0 | 0.0 | 0.00 | 0.00 | 0.00 | 78 | 1015.9 |
| 20260904051857 | 79 | 246 | 0.0 | 0.0 | 0.00 | 0.00 | 0.00 | 78 | 1015.8 |
| 20260904051759 | 79 | 246 | 0.0 | 0.0 | 0.00 | 0.00 | 0.00 | 78 | 1015.9 |
| 20260904051657 | 79 | 246 | 0.0 | 0.0 | 0.00 | 0.00 | 0.00 | 78 | 1015.9 |
| 20260904051556 | 79 | 246 | 0.0 | 0.0 | 0.00 | 0.00 | 0.00 | 78 | 1015.8 |
| 20260904051458 | 79 | 246 | 0.0 | 0.0 | 0.00 | 0.00 | 0.00 | 78 | 1015.8 |
| 20260904051357 | 79 | 246 | 0.0 | 0.0 | 0.00 | 0.00 | 0.00 | 78 | 1015.9 |
| 20260904051257 | 79 | 246 | 0.0 | 0.0 | 0.00 | 0.00 | 0.00 | 78 | 1015.9 |
| 20260904051157 | 79 | 246 | 0.0 | 0.0 | 0.00 | 0.00 | 0.00 | 79 | 1015.9 |
| 20260904051059 | 79 | 246 | 0.0 | 0.0 | 0.00 | 0.00 | 0.00 | 78 | 1015.9 |
| 20260904050956 | 79 | 246 | 0.0 | 0.0 | 0.00 | 0.00 | 0.00 | 78 | 1015.9 |
| 20260904050757 | 79 | 246 | 0.0 | 0.0 | 0.00 | 0.00 | 0.00 | 78 | 1015.9 |
| 20260904050659 | 79 | 246 | 0.0 | 0.0 | 0.00 | 0.00 | 0.00 | 78 | 1015.9 |
| 20260904050557 | 79 | 246 | 0.0 | 0.0 | 0.00 | 0.00 | 0.00 | 78 | 1015.8 |
| 20260904050457 | 79 | 246 | 0.0 | 0.0 | 0.00 | 0.00 | 0.00 | 79 | 1015.9 |
| 20260904050358 | 79 | 246 | 0.0 | 0.0 | 0.00 | 0.00 | 0.00 | 78 | 1015.9 |
| 20260904050257 | 79 | 246 | 0.0 | 0.0 | 0.00 | 0.00 | 0.00 | 78 | 1015.9 |
| 20260904050159 | 79 | 246 | 0.0 | 0.0 | 0.00 | 0.00 | 0.00 | 78 | 1015.9 |
| 20260904050000 | 79 | 246 | 0.0 | 0.0 | 0.00 | 0.00 | 0.00 | 78 | 1015.9 |
| 20260904045859 | 79 | 246 | 0.0 | 0.0 | 0.00 | 0.00 | 0.00 | 78 | 1015.9 |
| 20260904045759 | 79 | 246 | 0.0 | 0.0 | 0.00 | 0.00 | 0.00 | 78 | 1015.8 |
| 20260904045658 | 79 | 246 | 0.0 | 0.0 | 0.00 | 0.00 | 0.00 | 78 | 1015.9 |
| 20260904045600 | 79 | 246 | 0.0 | 0.0 | 0.00 | 0.00 | 0.00 | 78 | 1015.8 |
| 20260904045501 | 79 | 246 | 0.0 | 0.0 | 0.00 | 0.00 | 0.00 | 78 | 1015.8 |
| 20260904045359 | 79 | 246 | 0.0 | 0.0 | 0.00 | 0.00 | 0.00 | 78 | 1015.9 |
| 20260904045259 | 79 | 246 | 0.0 | 0.0 | 0.00 | 0.00 | 0.00 | 78 | 1015.9 |
| 20260904045200 | 79 | 246 | 0.0 | 0.0 | 0.00 | 0.00 | 0.00 | 78 | 1015.9 |
| 20260904045100 | 79 | 246 | 0.0 | 0.0 | 0.00 | 0.00 | 0.00 | 78 | 1015.9 |
| 20260904044958 | 79 | 246 | 0.0 | 0.0 | 0.00 | 0.00 | 0.00 | 78 | 1015.9 |
| 20260904044758 | 79 | 246 | 0.0 | 0.0 | 0.00 | 0.00 | 0.00 | 78 | 1015.9 |
| 20260904044658 | 79 | 246 | 0.0 | 0.0 | 0.00 | 0.00 | 0.00 | 78 | 1016.0 |
| 20260904044559 | 79 | 246 | 0.0 | 0.0 | 0.00 | 0.00 | 0.00 | 78 | 1015.9 |
| 20260904044457 | 79 | 246 | 0.0 | 0.0 | 0.00 | 0.00 | 0.00 | 78 | 1015.9 |
| 20260904044400 | 79 | 246 | 0.0 | 0.0 | 0.00 | 0.00 | 0.00 | 78 | 1015.9 |
| 20260904044058 | 79 | 246 | 0.0 | 0.0 | 0.00 | 0.00 | 0.00 | 78 | 1015.9 |
| 20260904043958 | 79 | 246 | 0.0 | 0.0 | 0.00 | 0.00 | 0.00 | 78 | 1015.9 |
| 20260904043900 | 79 | 246 | 0.0 | 0.0 | 0.00 | 0.00 | 0.00 | 78 | 1015.9 |
| 20260904043801 | 79 | 246 | 0.0 | 0.0 | 0.00 | 0.00 | 0.00 | 79 | 1015.9 |
| 20260904043558 | 79 | 246 | 0.0 | 0.0 | 0.00 | 0.00 | 0.00 | 79 | 1015.9 |
| 20260904043459 | 79 | 246 | 0.0 | 0.0 | 0.00 | 0.00 | 0.00 | 79 | 1015.9 |
| 20260904043400 | 79 | 246 | 0.0 | 0.0 | 0.00 | 0.00 | 0.00 | 78 | 1015.9 |
| 20260904043258 | 79 | 246 | 0.0 | 0.0 | 0.00 | 0.00 | 0.00 | 78 | 1015.9 |
| 20260904043100 | 79 | 246 | 0.0 | 0.0 | 0.00 | 0.00 | 0.00 | 78 | 1015.8 |
| 20260904043000 | 79 | 246 | 0.0 | 0.0 | 0.00 | 0.00 | 0.00 | 78 | 1015.8 |
| 20260904042900 | 79 | 246 | 0.0 | 0.0 | 0.00 | 0.00 | 0.00 | 78 | 1015.8 |
| 20260904042659 | 79 | 246 | 0.0 | 0.0 | 0.00 | 0.00 | 0.00 | 78 | 1015.8 |
| 20260904042600 | 79 | 246 | 0.0 | 0.0 | 0.00 | 0.00 | 0.00 | 78 | 1015.8 |
| 20260904042500 | 79 | 246 | 0.0 | 0.0 | 0.00 | 0.00 | 0.00 | 78 | 1015.7 |
| 20260904042200 | 79 | 246 | 0.0 | 0.0 | 0.00 | 0.00 | 0.00 | 78 | 1015.8 |
| 20260904042100 | 79 | 246 | 0.0 | 0.0 | 0.00 | 0.00 | 0.00 | 78 | 1015.8 |
| 20260904041959 | 79 | 246 | 0.0 | 0.0 | 0.00 | 0.00 | 0.00 | 78 | 1015.9 |
| 20260904041900 | 79 | 246 | 0.0 | 0.0 | 0.00 | 0.00 | 0.00 | 78 | 1015.9 |
| 20260904041759 | 79 | 246 | 0.0 | 0.0 | 0.00 | 0.00 | 0.00 | 78 | 1015.9 |
| 20260904041700 | 79 | 246 | 0.0 | 0.0 | 0.00 | 0.00 | 0.00 | 78 | 1015.9 |
| 20260904041559 | 79 | 246 | 0.0 | 0.0 | 0.00 | 0.00 | 0.00 | 78 | 1015.9 |
| 20260904041500 | 79 | 246 | 0.0 | 0.0 | 0.00 | 0.00 | 0.00 | 78 | 1015.9 |
| 20260904041302 | 79 | 246 | 0.0 | 0.0 | 0.00 | 0.00 | 0.00 | 78 | 1016.0 |
| 20260904041159 | 79 | 246 | 0.0 | 0.0 | 0.00 | 0.00 | 0.00 | 78 | 1016.0 |
| 20260904041059 | 79 | 246 | 0.0 | 0.0 | 0.00 | 0.00 | 0.00 | 78 | 1016.0 |
| 20260904040959 | 79 | 246 | 0.0 | 0.0 | 0.00 | 0.00 | 0.00 | 78 | 1016.0 |
| 20260904040859 | 79 | 246 | 0.0 | 0.0 | 0.00 | 0.00 | 0.00 | 78 | 1015.9 |
| 20260904040800 | 79 | 246 | 0.0 | 0.0 | 0.00 | 0.00 | 0.00 | 78 | 1015.9 |
| 20260904040703 | 79 | 246 | 0.0 | 0.0 | 0.00 | 0.00 | 0.00 | 78 | 1016.0 |
| 20260904040601 | 80 | 246 | 0.0 | 0.0 | 0.00 | 0.00 | 0.00 | 78 | 1016.0 |
| 20260904040459 | 79 | 246 | 0.0 | 0.0 | 0.00 | 0.00 | 0.00 | 78 | 1016.0 |
| 20260904040400 | 80 | 246 | 0.0 | 0.0 | 0.00 | 0.00 | 0.00 | 78 | 1016.0 |
| 20260904040200 | 80 | 246 | 0.0 | 0.0 | 0.00 | 0.00 | 0.00 | 78 | 1015.9 |
| 20260904040005 | 80 | 246 | 0.0 | 0.0 | 0.00 | 0.00 | 0.00 | 78 | 1015.9 |
| 20260904035900 | 80 | 246 | 0.0 | 0.0 | 0.00 | 0.00 | 0.00 | 78 | 1015.8 |
| 20260904035801 | 80 | 246 | 0.0 | 0.0 | 0.00 | 0.00 | 0.00 | 78 | 1015.9 |
| 20260904035700 | 80 | 246 | 0.0 | 0.0 | 0.00 | 0.00 | 0.00 | 78 | 1015.8 |
| 20260904035600 | 80 | 246 | 0.0 | 0.0 | 0.00 | 0.00 | 0.00 | 78 | 1015.8 |
| 20260904035400 | 80 | 246 | 0.0 | 0.0 | 0.00 | 0.00 | 0.00 | 78 | 1015.8 |
| 20260904035202 | 80 | 246 | 0.0 | 0.0 | 0.00 | 0.00 | 0.00 | 78 | 1015.8 |
| 20260904035101 | 80 | 246 | 0.0 | 0.0 | 0.00 | 0.00 | 0.00 | 78 | 1015.8 |
| 20260904034901 | 80 | 246 | 0.0 | 0.0 | 0.00 | 0.00 | 0.00 | 78 | 1015.8 |
| 20260904034801 | 80 | 246 | 0.0 | 0.0 | 0.00 | 0.00 | 0.00 | 78 | 1015.8 |
| 20260904034706 | 80 | 246 | 0.0 | 0.0 | 0.00 | 0.00 | 0.00 | 78 | 1015.6 |
| 20260904034403 | 80 | 246 | 0.0 | 0.0 | 0.00 | 0.00 | 0.00 | 78 | 1015.7 |
| 20260904034302 | 80 | 246 | 0.0 | 0.0 | 0.00 | 0.00 | 0.00 | 78 | 1015.7 |
| 20260904034201 | 80 | 246 | 0.0 | 0.0 | 0.00 | 0.00 | 0.00 | 78 | 1015.7 |
| 20260904034101 | 80 | 246 | 0.0 | 0.0 | 0.00 | 0.00 | 0.00 | 78 | 1015.7 |
| 20260904033901 | 80 | 246 | 0.0 | 0.0 | 0.00 | 0.00 | 0.00 | 78 | 1015.7 |
| 20260904033800 | 80 | 246 | 0.0 | 0.0 | 0.00 | 0.00 | 0.00 | 78 | 1015.7 |
| 20260904033701 | 80 | 246 | 0.0 | 0.0 | 0.00 | 0.00 | 0.00 | 78 | 1015.7 |
| 20260904033600 | 80 | 246 | 0.0 | 0.0 | 0.00 | 0.00 | 0.00 | 78 | 1015.7 |
| 20260904033402 | 80 | 246 | 0.0 | 0.0 | 0.00 | 0.00 | 0.00 | 78 | 1015.5 |
| 20260904033101 | 80 | 246 | 0.0 | 0.0 | 0.00 | 0.00 | 0.00 | 78 | 1015.6 |
| 20260904033000 | 80 | 246 | 0.0 | 0.0 | 0.00 | 0.00 | 0.00 | 78 | 1015.6 |
| 20260904032901 | 80 | 246 | 0.0 | 0.0 | 0.00 | 0.00 | 0.00 | 78 | 1015.6 |
| 20260904032802 | 80 | 246 | 0.0 | 0.0 | 0.00 | 0.00 | 0.00 | 78 | 1015.7 |
| 20260904032702 | 80 | 246 | 0.0 | 0.0 | 0.00 | 0.00 | 0.00 | 78 | 1015.6 |
| 20260904032600 | 80 | 246 | 0.0 | 0.0 | 0.00 | 0.00 | 0.00 | 78 | 1015.6 |
| 20260904032503 | 80 | 246 | 0.0 | 0.0 | 0.00 | 0.00 | 0.00 | 78 | 1015.5 |
| 20260904032401 | 80 | 246 | 0.0 | 0.0 | 0.00 | 0.00 | 0.00 | 78 | 1015.6 |
| 20260904032301 | 80 | 246 | 0.0 | 0.0 | 0.00 | 0.00 | 0.00 | 78 | 1015.6 |
| 20260904032200 | 80 | 246 | 0.0 | 0.0 | 0.00 | 0.00 | 0.00 | 78 | 1015.7 |
| 20260904032100 | 80 | 246 | 0.0 | 0.0 | 0.00 | 0.00 | 0.00 | 78 | 1015.6 |
| 20260904032001 | 80 | 246 | 0.0 | 0.0 | 0.00 | 0.00 | 0.00 | 78 | 1015.7 |
| 20260904031900 | 80 | 246 | 0.0 | 0.0 | 0.00 | 0.00 | 0.00 | 78 | 1015.7 |
| 20260904031700 | 80 | 246 | 0.0 | 0.0 | 0.00 | 0.00 | 0.00 | 78 | 1015.6 |
| 20260904031500 | 80 | 246 | 0.0 | 0.0 | 0.00 | 0.00 | 0.00 | 77 | 1015.7 |
| 20260904031401 | 80 | 246 | 0.0 | 0.0 | 0.00 | 0.00 | 0.00 | 77 | 1015.7 |
| 20260904031302 | 80 | 246 | 0.0 | 0.0 | 0.00 | 0.00 | 0.00 | 77 | 1015.7 |
| 20260904031201 | 80 | 246 | 0.0 | 0.0 | 0.00 | 0.00 | 0.00 | 77 | 1015.6 |
| 20260904031059 | 80 | 246 | 0.0 | 0.0 | 0.00 | 0.00 | 0.00 | 77 | 1015.7 |
| 20260904030700 | 81 | 246 | 0.0 | 0.0 | 0.00 | 0.00 | 0.00 | 77 | 1015.7 |
| 20260904030601 | 81 | 246 | 0.0 | 0.0 | 0.00 | 0.00 | 0.00 | 77 | 1015.7 |
| 20260904030500 | 81 | 246 | 0.0 | 0.0 | 0.00 | 0.00 | 0.00 | 77 | 1015.7 |
| 20260904030400 | 81 | 246 | 0.0 | 0.0 | 0.00 | 0.00 | 0.00 | 77 | 1015.6 |
| 20260904030301 | 81 | 246 | 0.0 | 0.0 | 0.00 | 0.00 | 0.00 | 77 | 1015.7 |
| 20260904030201 | 81 | 246 | 0.0 | 0.0 | 0.00 | 0.00 | 0.00 | 77 | 1015.7 |
| 20260904030000 | 81 | 246 | 0.0 | 0.0 | 0.00 | 0.00 | 0.00 | 77 | 1015.7 |
| 20260904025902 | 81 | 246 | 0.0 | 0.0 | 0.00 | 0.00 | 0.00 | 77 | 1015.6 |
| 20260904025700 | 81 | 246 | 0.0 | 0.0 | 0.00 | 0.00 | 0.00 | 77 | 1015.7 |
| 20260904025559 | 81 | 246 | 0.0 | 0.0 | 0.00 | 0.00 | 0.00 | 77 | 1015.7 |
| 20260904025500 | 81 | 246 | 0.0 | 0.0 | 0.00 | 0.00 | 0.00 | 77 | 1015.7 |
| 20260904025359 | 81 | 246 | 0.0 | 0.0 | 0.00 | 0.00 | 0.00 | 77 | 1015.7 |
| 20260904025300 | 81 | 246 | 0.0 | 0.0 | 0.00 | 0.00 | 0.00 | 77 | 1015.7 |
| 20260904025200 | 81 | 246 | 0.0 | 0.0 | 0.00 | 0.00 | 0.00 | 77 | 1015.7 |
| 20260904025058 | 81 | 246 | 0.0 | 0.0 | 0.00 | 0.00 | 0.00 | 77 | 1015.8 |
| 20260904025001 | 81 | 246 | 0.0 | 0.0 | 0.00 | 0.00 | 0.00 | 77 | 1015.8 |
| 20260904024859 | 81 | 246 | 0.0 | 0.0 | 0.00 | 0.00 | 0.00 | 77 | 1015.8 |
| 20260904024800 | 81 | 246 | 0.0 | 0.0 | 0.00 | 0.00 | 0.00 | 77 | 1015.7 |
| 20260904024659 | 81 | 246 | 0.0 | 0.0 | 0.00 | 0.00 | 0.00 | 77 | 1015.7 |
| 20260904024559 | 81 | 246 | 0.0 | 0.0 | 0.00 | 0.00 | 0.00 | 77 | 1015.7 |
| 20260904024500 | 81 | 246 | 0.0 | 0.0 | 0.00 | 0.00 | 0.00 | 77 | 1015.8 |
| 20260904024259 | 81 | 246 | 0.0 | 0.0 | 0.00 | 0.00 | 0.00 | 77 | 1015.8 |
| 20260904024201 | 81 | 246 | 0.0 | 0.0 | 0.00 | 0.00 | 0.00 | 77 | 1015.7 |
| 20260904024059 | 81 | 246 | 0.0 | 0.0 | 0.00 | 0.00 | 0.00 | 77 | 1015.7 |
| 20260904023959 | 81 | 246 | 0.0 | 0.0 | 0.00 | 0.00 | 0.00 | 77 | 1015.8 |
| 20260904023859 | 81 | 246 | 0.0 | 0.0 | 0.00 | 0.00 | 0.00 | 77 | 1015.8 |
| 20260904023759 | 81 | 246 | 0.0 | 0.0 | 0.00 | 0.00 | 0.00 | 77 | 1015.8 |
| 20260904023700 | 81 | 246 | 0.0 | 0.0 | 0.00 | 0.00 | 0.00 | 77 | 1015.8 |
| 20260904023600 | 81 | 246 | 0.0 | 0.0 | 0.00 | 0.00 | 0.00 | 77 | 1015.8 |
| 20260904023459 | 81 | 246 | 0.0 | 0.0 | 0.00 | 0.00 | 0.00 | 77 | 1015.8 |
| 20260904023402 | 81 | 246 | 0.0 | 0.0 | 0.00 | 0.00 | 0.00 | 77 | 1015.8 |
| 20260904023301 | 81 | 246 | 0.0 | 0.0 | 0.00 | 0.00 | 0.00 | 77 | 1015.8 |
| 20260904023059 | 81 | 246 | 0.0 | 0.0 | 0.00 | 0.00 | 0.00 | 77 | 1015.8 |
| 20260904022859 | 81 | 246 | 0.0 | 0.0 | 0.00 | 0.00 | 0.00 | 77 | 1015.7 |
| 20260904022800 | 81 | 246 | 0.0 | 0.0 | 0.00 | 0.00 | 0.00 | 77 | 1015.8 |
| 20260904022702 | 81 | 246 | 0.0 | 0.0 | 0.00 | 0.00 | 0.00 | 77 | 1015.7 |
| 20260904022559 | 81 | 246 | 0.0 | 0.0 | 0.00 | 0.00 | 0.00 | 77 | 1015.8 |
| 20260904022504 | 81 | 246 | 0.0 | 0.0 | 0.00 | 0.00 | 0.00 | 77 | 1015.8 |
| 20260904022401 | 81 | 246 | 0.0 | 0.0 | 0.00 | 0.00 | 0.00 | 77 | 1015.9 |
| 20260904022300 | 81 | 246 | 0.0 | 0.0 | 0.00 | 0.00 | 0.00 | 77 | 1015.8 |
| 20260904022159 | 81 | 246 | 0.0 | 0.0 | 0.00 | 0.00 | 0.00 | 78 | 1015.8 |
| 20260904022100 | 81 | 246 | 0.0 | 0.0 | 0.00 | 0.00 | 0.00 | 78 | 1015.9 |
| 20260904021959 | 81 | 246 | 0.0 | 0.0 | 0.00 | 0.00 | 0.00 | 78 | 1015.8 |
| 20260904021900 | 81 | 246 | 0.0 | 0.0 | 0.00 | 0.00 | 0.00 | 78 | 1015.8 |
| 20260904021759 | 81 | 246 | 0.0 | 0.0 | 0.00 | 0.00 | 0.00 | 77 | 1015.9 |
| 20260904021659 | 81 | 246 | 0.0 | 0.0 | 0.00 | 0.00 | 0.00 | 77 | 1015.8 |
| 20260904021359 | 82 | 246 | 0.0 | 0.0 | 0.00 | 0.00 | 0.00 | 77 | 1015.9 |
| 20260904021301 | 82 | 246 | 0.0 | 0.0 | 0.00 | 0.00 | 0.00 | 77 | 1015.8 |
| 20260904021058 | 82 | 246 | 0.0 | 0.0 | 0.00 | 0.00 | 0.00 | 76 | 1015.8 |
| 20260904020859 | 82 | 246 | 0.0 | 0.0 | 0.00 | 0.00 | 0.00 | 76 | 1015.8 |
| 20260904020759 | 82 | 246 | 0.0 | 0.0 | 0.00 | 0.00 | 0.00 | 76 | 1015.7 |
| 20260904020600 | 82 | 246 | 0.0 | 0.0 | 0.00 | 0.00 | 0.00 | 76 | 1015.8 |
| 20260904020458 | 82 | 246 | 0.0 | 0.0 | 0.00 | 0.00 | 0.00 | 76 | 1015.8 |
| 20260904020258 | 82 | 246 | 0.0 | 0.0 | 0.00 | 0.00 | 0.00 | 76 | 1015.7 |
| 20260904020200 | 82 | 246 | 0.0 | 0.0 | 0.00 | 0.00 | 0.00 | 76 | 1015.7 |
| 20260904020059 | 82 | 246 | 0.0 | 0.0 | 0.00 | 0.00 | 0.00 | 76 | 1015.7 |
| 20260904015901 | 82 | 246 | 0.0 | 0.0 | 0.00 | 0.00 | 0.00 | 76 | 1015.8 |
| 20260904015802 | 82 | 246 | 0.0 | 0.0 | 0.00 | 0.00 | 0.00 | 76 | 1015.8 |
| 20260904015700 | 82 | 246 | 0.0 | 0.0 | 0.00 | 0.00 | 0.00 | 75 | 1015.8 |
| 20260904015601 | 82 | 246 | 0.0 | 0.0 | 0.00 | 0.00 | 0.00 | 76 | 1015.8 |
| 20260904015501 | 82 | 246 | 0.0 | 0.0 | 0.00 | 0.00 | 0.00 | 76 | 1015.9 |
| 20260904015401 | 82 | 246 | 0.0 | 0.0 | 0.00 | 0.00 | 0.00 | 76 | 1015.8 |
| 20260904015300 | 82 | 246 | 0.0 | 0.0 | 0.00 | 0.00 | 0.00 | 76 | 1015.9 |
| 20260904015200 | 82 | 246 | 0.0 | 0.0 | 0.00 | 0.00 | 0.00 | 76 | 1015.8 |
| 20260904015102 | 82 | 246 | 0.0 | 0.0 | 0.00 | 0.00 | 0.00 | 76 | 1015.8 |
| 20260904015000 | 83 | 246 | 0.0 | 0.0 | 0.00 | 0.00 | 0.00 | 75 | 1015.8 |
| 20260904014801 | 83 | 246 | 0.0 | 0.0 | 0.00 | 0.00 | 0.00 | 75 | 1016.0 |
| 20260904014701 | 83 | 246 | 0.0 | 0.0 | 0.00 | 0.00 | 0.00 | 75 | 1016.0 |
| 20260904014601 | 83 | 246 | 0.0 | 0.0 | 0.00 | 0.00 | 0.00 | 75 | 1015.9 |
| 20260904014300 | 83 | 246 | 0.0 | 0.0 | 0.00 | 0.00 | 0.00 | 74 | 1015.9 |
| 20260904014100 | 83 | 246 | 0.0 | 0.0 | 0.00 | 0.00 | 0.00 | 74 | 1015.9 |
| 20260904014001 | 83 | 246 | 0.0 | 0.0 | 0.00 | 0.00 | 0.00 | 74 | 1015.9 |
| 20260904013902 | 83 | 246 | 0.0 | 0.0 | 0.00 | 0.00 | 0.00 | 74 | 1015.9 |
| 20260904013800 | 83 | 246 | 0.0 | 0.0 | 0.00 | 0.00 | 0.00 | 74 | 1016.0 |
| 20260904013701 | 83 | 246 | 0.0 | 0.0 | 0.00 | 0.00 | 0.00 | 74 | 1015.9 |
| 20260904013601 | 83 | 246 | 0.0 | 0.0 | 0.00 | 0.00 | 0.00 | 74 | 1016.0 |
| 20260904013400 | 83 | 246 | 0.0 | 0.0 | 0.00 | 0.00 | 0.00 | 74 | 1015.9 |
| 20260904013301 | 83 | 246 | 0.0 | 0.0 | 0.00 | 0.00 | 0.00 | 74 | 1015.9 |
| 20260904013102 | 83 | 246 | 0.0 | 0.0 | 0.00 | 0.00 | 0.00 | 74 | 1015.9 |
| 20260904012904 | 83 | 246 | 0.0 | 0.0 | 0.00 | 0.00 | 0.00 | 73 | 1015.9 |
| 20260904012659 | 83 | 246 | 0.0 | 0.0 | 0.00 | 0.00 | 0.00 | 73 | 1016.0 |
| 20260904012601 | 83 | 246 | 0.0 | 0.0 | 0.00 | 0.00 | 0.00 | 73 | 1016.0 |
| 20260904012459 | 83 | 246 | 0.0 | 0.0 | 0.00 | 0.00 | 0.00 | 73 | 1015.9 |
| 20260904012400 | 83 | 246 | 0.0 | 0.0 | 0.00 | 0.00 | 0.00 | 73 | 1015.9 |
| 20260904012259 | 83 | 246 | 0.0 | 0.0 | 0.00 | 0.00 | 0.00 | 72 | 1015.9 |
| 20260904012200 | 84 | 246 | 0.0 | 0.0 | 0.00 | 0.00 | 0.00 | 72 | 1015.8 |
| 20260904011959 | 84 | 246 | 0.0 | 0.0 | 0.00 | 0.00 | 0.00 | 72 | 1015.8 |
| 20260904011800 | 84 | 246 | 0.0 | 0.0 | 0.00 | 0.00 | 0.00 | 72 | 1015.8 |
| 20260904011511 | 84 | 246 | 0.0 | 0.0 | 0.00 | 0.00 | 0.00 | 72 | 1015.8 |
| 20260904011308 | 84 | 246 | 0.0 | 0.0 | 0.00 | 0.00 | 0.00 | 72 | 1015.8 |
| 20260904011159 | 84 | 246 | 0.0 | 0.0 | 0.00 | 0.00 | 0.00 | 72 | 1015.8 |
| 20260904011102 | 84 | 246 | 0.0 | 0.0 | 0.00 | 0.00 | 0.00 | 72 | 1015.8 |
| 20260904010959 | 84 | 246 | 0.0 | 0.0 | 0.00 | 0.00 | 0.00 | 72 | 1015.8 |
| 20260904010900 | 84 | 246 | 0.0 | 0.0 | 0.00 | 0.00 | 0.00 | 72 | 1015.7 |
| 20260904010759 | 84 | 246 | 0.0 | 0.0 | 0.00 | 0.00 | 0.00 | 72 | 1015.7 |
| 20260904010700 | 84 | 246 | 0.0 | 0.0 | 0.00 | 0.00 | 0.00 | 72 | 1015.8 |
| 20260904010600 | 84 | 246 | 0.0 | 0.0 | 0.00 | 0.00 | 0.00 | 72 | 1015.7 |
| 20260904010503 | 85 | 246 | 0.0 | 0.0 | 0.00 | 0.00 | 0.00 | 72 | 1015.7 |
| 20260904010359 | 85 | 246 | 0.0 | 0.0 | 0.00 | 0.00 | 0.00 | 72 | 1015.6 |
| 20260904010259 | 85 | 246 | 0.0 | 0.0 | 0.00 | 0.00 | 0.00 | 72 | 1015.6 |
| 20260904010159 | 85 | 246 | 0.0 | 0.0 | 0.00 | 0.00 | 0.00 | 71 | 1015.6 |
| 20260904010100 | 85 | 246 | 0.0 | 0.0 | 0.00 | 0.00 | 0.00 | 71 | 1015.6 |
| 20260904010003 | 85 | 246 | 0.0 | 0.0 | 0.00 | 0.00 | 0.00 | 71 | 1015.6 |
| 20260904005901 | 85 | 246 | 0.0 | 0.0 | 0.00 | 0.00 | 0.00 | 70 | 1015.6 |
| 20260904005801 | 85 | 246 | 0.0 | 0.0 | 0.00 | 0.00 | 0.00 | 70 | 1015.6 |
| 20260904005701 | 85 | 246 | 0.0 | 0.0 | 0.00 | 0.00 | 0.00 | 70 | 1015.6 |
| 20260904005602 | 85 | 246 | 0.0 | 0.0 | 0.00 | 0.00 | 0.00 | 70 | 1015.6 |
| 20260904005501 | 85 | 246 | 0.0 | 0.0 | 0.00 | 0.00 | 0.00 | 70 | 1015.6 |
| 20260904005401 | 85 | 246 | 0.0 | 0.0 | 0.00 | 0.00 | 0.00 | 69 | 1015.6 |
| 20260904005301 | 85 | 246 | 0.0 | 0.0 | 0.00 | 0.00 | 0.00 | 69 | 1015.6 |
| 20260904005100 | 85 | 246 | 0.0 | 0.0 | 0.00 | 0.00 | 0.00 | 69 | 1015.6 |
| 20260904005000 | 86 | 246 | 0.0 | 0.0 | 0.00 | 0.00 | 0.00 | 69 | 1015.6 |
| 20260904004900 | 86 | 246 | 0.0 | 0.0 | 0.00 | 0.00 | 0.00 | 69 | 1015.6 |
| 20260904004801 | 86 | 246 | 0.0 | 0.0 | 0.00 | 0.00 | 0.00 | 69 | 1015.6 |
| 20260904004601 | 86 | 246 | 0.0 | 0.0 | 0.00 | 0.00 | 0.00 | 69 | 1015.6 |
| 20260904004501 | 86 | 246 | 0.0 | 0.0 | 0.00 | 0.00 | 0.00 | 69 | 1015.6 |
| 20260904004400 | 86 | 246 | 0.0 | 0.0 | 0.00 | 0.00 | 0.00 | 69 | 1015.5 |
| 20260904004301 | 86 | 246 | 0.0 | 0.0 | 0.00 | 0.00 | 0.00 | 69 | 1015.4 |
| 20260904004201 | 86 | 246 | 0.0 | 0.0 | 0.00 | 0.00 | 0.00 | 69 | 1015.4 |
| 20260904004102 | 86 | 246 | 0.0 | 0.0 | 0.00 | 0.00 | 0.00 | 68 | 1015.4 |
| 20260904004000 | 86 | 246 | 0.0 | 0.0 | 0.00 | 0.00 | 0.00 | 68 | 1015.4 |
| 20260904003902 | 86 | 246 | 0.0 | 0.0 | 0.00 | 0.00 | 0.00 | 68 | 1015.4 |
| 20260904003700 | 86 | 246 | 0.0 | 0.0 | 0.00 | 0.00 | 0.00 | 66 | 1015.5 |
| 20260904003600 | 87 | 246 | 0.0 | 0.0 | 0.00 | 0.00 | 0.00 | 66 | 1015.5 |
| 20260904003501 | 87 | 246 | 0.0 | 0.0 | 0.00 | 0.00 | 0.00 | 66 | 1015.4 |
| 20260904003400 | 87 | 246 | 0.0 | 0.0 | 0.00 | 0.00 | 0.00 | 66 | 1015.4 |
| 20260904003301 | 87 | 246 | 0.0 | 0.0 | 0.00 | 0.00 | 0.00 | 66 | 1015.4 |
| 20260904003200 | 87 | 246 | 0.0 | 0.0 | 0.00 | 0.00 | 0.00 | 66 | 1015.3 |
| 20260904003101 | 87 | 246 | 0.0 | 0.0 | 0.00 | 0.00 | 0.00 | 66 | 1015.3 |
| 20260904003002 | 87 | 246 | 0.0 | 0.0 | 0.00 | 0.00 | 0.00 | 65 | 1015.3 |
| 20260904002900 | 87 | 246 | 0.0 | 0.0 | 0.00 | 0.00 | 0.00 | 65 | 1015.3 |
| 20260904002800 | 87 | 246 | 0.0 | 0.0 | 0.00 | 0.00 | 0.00 | 65 | 1015.2 |
| 20260904002601 | 87 | 246 | 0.0 | 0.0 | 0.00 | 0.00 | 0.00 | 65 | 1015.3 |
| 20260904002501 | 87 | 246 | 0.0 | 0.0 | 0.00 | 0.00 | 0.00 | 65 | 1015.3 |
| 20260904002400 | 87 | 246 | 0.0 | 0.0 | 0.00 | 0.00 | 0.00 | 65 | 1015.2 |
| 20260904002306 | 87 | 246 | 0.0 | 0.0 | 0.00 | 0.00 | 0.00 | 64 | 1015.2 |
| 20260904002200 | 87 | 246 | 0.0 | 0.0 | 0.00 | 0.00 | 0.00 | 64 | 1015.2 |
| 20260904002100 | 88 | 242 | 0.0 | 0.0 | 0.00 | 0.00 | 0.00 | 64 | 1015.1 |
| 20260904002000 | 88 | 242 | 0.0 | 0.0 | 0.00 | 0.00 | 0.00 | 64 | 1015.2 |
| 20260904001900 | 88 | 242 | 0.0 | 0.0 | 0.00 | 0.00 | 0.00 | 64 | 1015.2 |
| 20260904001800 | 88 | 242 | 0.0 | 0.0 | 0.00 | 0.00 | 0.00 | 64 | 1015.1 |
| 20260904001700 | 88 | 242 | 0.0 | 0.0 | 0.00 | 0.00 | 0.00 | 64 | 1015.1 |
| 20260904001500 | 88 | 242 | 0.0 | 0.0 | 0.00 | 0.00 | 0.00 | 64 | 1015.1 |
| 20260904001400 | 88 | 242 | 0.0 | 0.0 | 0.00 | 0.00 | 0.00 | 63 | 1015.1 |
| 20260904001201 | 88 | 242 | 0.0 | 0.0 | 0.00 | 0.00 | 0.00 | 64 | 1015.1 |
| 20260904001000 | 88 | 242 | 0.0 | 0.0 | 0.00 | 0.00 | 0.00 | 63 | 1015.2 |
| 20260904000901 | 89 | 242 | 0.0 | 0.0 | 0.00 | 0.00 | 0.00 | 63 | 1015.2 |
| 20260904000800 | 89 | 242 | 0.0 | 0.0 | 0.00 | 0.00 | 0.00 | 63 | 1015.2 |
| 20260904000700 | 89 | 242 | 0.0 | 0.0 | 0.00 | 0.00 | 0.00 | 63 | 1015.2 |
| 20260904000601 | 89 | 242 | 0.0 | 0.0 | 0.00 | 0.00 | 0.00 | 63 | 1015.1 |
| 20260904000501 | 89 | 242 | 0.0 | 0.0 | 0.00 | 0.00 | 0.00 | 63 | 1015.1 |
| 20260904000403 | 89 | 242 | 0.0 | 0.0 | 0.00 | 0.00 | 0.00 | 62 | 1015.2 |
| 20260904000303 | 89 | 242 | 0.0 | 0.0 | 0.00 | 0.00 | 0.00 | 62 | 1015.2 |
| 20260904000201 | 89 | 242 | 0.0 | 0.0 | 0.00 | 0.00 | 0.00 | 62 | 1015.2 |
| 20260904000002 | 89 | 242 | 0.0 | 0.0 | 0.00 | 0.00 | 0.00 | 62 | 1015.1 |
| 20260903235859 | 89 | 242 | 0.0 | 0.0 | 0.00 | 0.00 | 0.00 | 62 | 1015.1 |
| 20260903235800 | 89 | 242 | 0.0 | 0.0 | 0.00 | 0.00 | 0.00 | 62 | 1015.1 |
| 20260903235659 | 89 | 242 | 0.0 | 0.0 | 0.00 | 0.00 | 0.00 | 62 | 1015.1 |
| 20260903235600 | 89 | 242 | 0.0 | 0.0 | 0.00 | 0.00 | 0.00 | 62 | 1015.0 |
| 20260903235402 | 90 | 242 | 0.0 | 0.0 | 0.00 | 0.00 | 0.00 | 62 | 1015.0 |
| 20260903235259 | 90 | 242 | 0.0 | 0.0 | 0.00 | 0.00 | 0.00 | 62 | 1015.0 |
| 20260903235200 | 90 | 242 | 0.0 | 0.0 | 0.00 | 0.00 | 0.00 | 62 | 1015.0 |
| 20260903235000 | 90 | 242 | 0.0 | 0.0 | 0.00 | 0.00 | 0.00 | 62 | 1015.0 |
| 20260903234801 | 90 | 239 | 0.0 | 0.0 | 0.00 | 0.00 | 0.00 | 62 | 1015.0 |
| 20260903234659 | 90 | 239 | 0.0 | 0.0 | 0.00 | 0.00 | 0.00 | 61 | 1015.0 |
| 20260903234501 | 90 | 239 | 0.0 | 0.0 | 0.00 | 0.00 | 0.00 | 61 | 1015.0 |
| 20260903234359 | 90 | 239 | 0.0 | 0.0 | 0.00 | 0.00 | 0.00 | 61 | 1015.0 |
| 20260903234259 | 90 | 238 | 0.0 | 0.0 | 0.00 | 0.00 | 0.00 | 61 | 1015.0 |
| 20260903234059 | 90 | 238 | 0.0 | 0.0 | 0.00 | 0.00 | 0.00 | 60 | 1015.0 |
| 20260903234000 | 90 | 238 | 0.0 | 0.0 | 0.00 | 0.00 | 0.00 | 60 | 1015.0 |
| 20260903233859 | 90 | 238 | 0.0 | 1.0 | 0.00 | 0.00 | 0.00 | 60 | 1015.0 |
| 20260903233802 | 90 | 238 | 0.0 | 1.0 | 0.00 | 0.00 | 0.00 | 60 | 1015.0 |
| 20260903233659 | 90 | 238 | 0.0 | 1.0 | 0.00 | 0.00 | 0.00 | 60 | 1015.0 |
| 20260903233559 | 91 | 238 | 0.0 | 1.0 | 0.00 | 0.00 | 0.00 | 60 | 1015.0 |
| 20260903233459 | 91 | 257 | 0.0 | 1.0 | 0.00 | 0.00 | 0.00 | 60 | 1015.0 |
| 20260903233300 | 91 | 269 | 0.0 | 2.0 | 0.00 | 0.00 | 0.00 | 59 | 1015.0 |
| 20260903233200 | 91 | 262 | 0.0 | 2.0 | 0.00 | 0.00 | 0.00 | 60 | 1015.0 |
| 20260903233101 | 91 | 252 | 0.0 | 2.0 | 0.00 | 0.00 | 0.00 | 59 | 1015.0 |
| 20260903232859 | 91 | 295 | 0.0 | 2.0 | 0.00 | 0.00 | 0.00 | 59 | 1015.0 |
| 20260903232800 | 91 | 294 | 0.0 | 2.0 | 0.00 | 0.00 | 0.00 | 59 | 1014.9 |
| 20260903232601 | 91 | 295 | 0.0 | 2.0 | 0.00 | 0.00 | 0.00 | 59 | 1014.9 |
| 20260903232400 | 91 | 260 | 0.0 | 0.0 | 0.00 | 0.00 | 0.00 | 58 | 1014.9 |
| 20260903232259 | 91 | 163 | 0.0 | 2.0 | 0.00 | 0.00 | 0.00 | 59 | 1014.9 |
| 20260903232059 | 91 | 163 | 0.0 | 2.0 | 0.00 | 0.00 | 0.00 | 58 | 1014.9 |
| 20260903231959 | 91 | 163 | 0.0 | 2.0 | 0.00 | 0.00 | 0.00 | 58 | 1014.9 |
| 20260903231859 | 91 | 163 | 0.0 | 2.0 | 0.00 | 0.00 | 0.00 | 58 | 1014.9 |
| 20260903231759 | 91 | 163 | 0.0 | 4.0 | 0.00 | 0.00 | 0.00 | 58 | 1014.9 |
| 20260903231700 | 91 | 181 | 0.0 | 4.0 | 0.00 | 0.00 | 0.00 | 58 | 1014.9 |
| 20260903231600 | 91 | 321 | 0.0 | 4.0 | 0.00 | 0.00 | 0.00 | 58 | 1014.9 |
| 20260903231459 | 91 | 175 | 0.0 | 4.0 | 0.00 | 0.00 | 0.00 | 58 | 1014.9 |
| 20260903231359 | 91 | 293 | 1.0 | 4.0 | 0.00 | 0.00 | 0.00 | 58 | 1014.9 |
| 20260903231200 | 92 | 205 | 0.0 | 4.0 | 0.00 | 0.00 | 0.00 | 57 | 1014.9 |
| 20260903230959 | 92 | 178 | 0.0 | 4.0 | 0.00 | 0.00 | 0.00 | 57 | 1014.8 |
| 20260903230859 | 92 | 261 | 3.0 | 4.0 | 0.00 | 0.00 | 0.00 | 57 | 1014.9 |
| 20260903230759 | 92 | 197 | 0.0 | 2.0 | 0.00 | 0.00 | 0.00 | 57 | 1014.9 |
| 20260903230700 | 92 | 279 | 0.0 | 2.0 | 0.00 | 0.00 | 0.00 | 57 | 1014.9 |
| 20260903230459 | 92 | 324 | 0.0 | 2.0 | 0.00 | 0.00 | 0.00 | 57 | 1014.9 |
| 20260903230359 | 92 | 342 | 0.0 | 2.0 | 0.00 | 0.00 | 0.00 | 57 | 1014.9 |
| 20260903230258 | 92 | 342 | 0.0 | 2.0 | 0.00 | 0.00 | 0.00 | 57 | 1015.0 |
| 20260903230059 | 92 | 271 | 0.0 | 2.0 | 0.00 | 0.00 | 0.00 | 56 | 1014.9 |
| 20260903225959 | 92 | 262 | 0.0 | 4.0 | 0.00 | 0.00 | 0.00 | 56 | 1014.9 |
| 20260903225859 | 92 | 263 | 0.0 | 4.0 | 0.00 | 0.00 | 0.00 | 56 | 1015.0 |
| 20260903225759 | 92 | 201 | 1.0 | 5.0 | 0.00 | 0.00 | 0.00 | 56 | 1014.9 |
| 20260903225700 | 92 | 187 | 0.0 | 5.0 | 0.00 | 0.00 | 0.00 | 57 | 1015.0 |
| 20260903225559 | 92 | 207 | 0.0 | 5.0 | 0.00 | 0.00 | 0.00 | 56 | 1014.9 |
| 20260903225400 | 92 | 211 | 0.0 | 5.0 | 0.00 | 0.00 | 0.00 | 56 | 1014.9 |
| 20260903225259 | 92 | 144 | 0.0 | 5.0 | 0.00 | 0.00 | 0.00 | 55 | 1014.9 |
| 20260903225200 | 92 | 230 | 0.0 | 5.0 | 0.00 | 0.00 | 0.00 | 55 | 1015.0 |
| 20260903225059 | 92 | 166 | 0.0 | 5.0 | 0.00 | 0.00 | 0.00 | 56 | 1015.0 |
| 20260903225000 | 92 | 211 | 0.0 | 5.0 | 0.00 | 0.00 | 0.00 | 55 | 1015.0 |
| 20260903224801 | 92 | 181 | 0.0 | 4.0 | 0.00 | 0.00 | 0.00 | 56 | 1015.0 |
| 20260903224659 | 92 | 208 | 0.0 | 4.0 | 0.00 | 0.00 | 0.00 | 56 | 1015.0 |
| 20260903224601 | 92 | 208 | 0.0 | 4.0 | 0.00 | 0.00 | 0.00 | 56 | 1014.9 |
| 20260903224400 | 92 | 340 | 1.0 | 4.0 | 0.00 | 0.00 | 0.00 | 55 | 1015.0 |
| 20260903224259 | 93 | 278 | 0.0 | 4.0 | 0.00 | 0.00 | 0.00 | 55 | 1014.9 |
| 20260903224200 | 93 | 325 | 0.0 | 4.0 | 0.00 | 0.00 | 0.00 | 55 | 1015.0 |
| 20260903223859 | 93 | 173 | 0.0 | 4.0 | 0.00 | 0.00 | 0.00 | 55 | 1014.9 |
| 20260903223759 | 93 | 158 | 0.0 | 4.0 | 0.00 | 0.00 | 0.00 | 55 | 1014.8 |
| 20260903223559 | 93 | 165 | 0.0 | 5.0 | 0.00 | 0.00 | 0.00 | 55 | 1014.9 |
| 20260903223500 | 93 | 253 | 0.0 | 5.0 | 0.00 | 0.00 | 0.00 | 54 | 1014.9 |
| 20260903223359 | 93 | 178 | 0.0 | 5.0 | 0.00 | 0.00 | 0.00 | 54 | 1014.9 |
| 20260903223259 | 93 | 171 | 0.0 | 5.0 | 0.00 | 0.00 | 0.00 | 53 | 1014.9 |
| 20260903223159 | 93 | 199 | 2.0 | 5.0 | 0.00 | 0.00 | 0.00 | 55 | 1014.8 |
| 20260903222959 | 93 | 164 | 1.0 | 5.0 | 0.00 | 0.00 | 0.00 | 54 | 1014.8 |
| 20260903222902 | 93 | 193 | 0.0 | 3.0 | 0.00 | 0.00 | 0.00 | 54 | 1014.8 |
| 20260903222759 | 93 | 165 | 0.0 | 3.0 | 0.00 | 0.00 | 0.00 | 54 | 1014.8 |
| 20260903222600 | 93 | 198 | 0.0 | 3.0 | 0.00 | 0.00 | 0.00 | 54 | 1014.7 |
| 20260903222459 | 93 | 162 | 0.0 | 3.0 | 0.00 | 0.00 | 0.00 | 54 | 1014.7 |
| 20260903222400 | 93 | 234 | 0.0 | 3.0 | 0.00 | 0.00 | 0.00 | 54 | 1014.7 |
| 20260903222200 | 93 | 248 | 1.0 | 4.0 | 0.00 | 0.00 | 0.00 | 55 | 1014.7 |
| 20260903222059 | 93 | 171 | 1.0 | 4.0 | 0.00 | 0.00 | 0.00 | 54 | 1014.6 |
| 20260903221959 | 93 | 199 | 2.0 | 4.0 | 0.00 | 0.00 | 0.00 | 54 | 1014.7 |
| 20260903221759 | 93 | 225 | 1.0 | 4.0 | 0.00 | 0.00 | 0.00 | 54 | 1014.7 |
| 20260903221701 | 93 | 209 | 1.0 | 4.0 | 0.00 | 0.00 | 0.00 | 55 | 1014.7 |
| 20260903221559 | 94 | 280 | 0.0 | 4.0 | 0.00 | 0.00 | 0.00 | 54 | 1014.6 |
| 20260903221500 | 94 | 232 | 0.0 | 4.0 | 0.00 | 0.00 | 0.00 | 54 | 1014.7 |
| 20260903221359 | 94 | 227 | 0.0 | 4.0 | 0.00 | 0.00 | 0.00 | 54 | 1014.7 |
| 20260903221259 | 94 | 227 | 2.0 | 4.0 | 0.00 | 0.00 | 0.00 | 54 | 1014.7 |
| 20260903221159 | 94 | 329 | 1.0 | 4.0 | 0.00 | 0.00 | 0.00 | 54 | 1014.6 |
| 20260903221100 | 94 | 197 | 0.0 | 4.0 | 0.00 | 0.00 | 0.00 | 54 | 1014.6 |
| 20260903220959 | 94 | 290 | 0.0 | 4.0 | 0.00 | 0.00 | 0.00 | 53 | 1014.5 |
| 20260903220900 | 94 | 190 | 1.0 | 5.0 | 0.00 | 0.00 | 0.00 | 54 | 1014.6 |
| 20260903220802 | 94 | 116 | 0.0 | 5.0 | 0.00 | 0.00 | 0.00 | 54 | 1014.5 |
| 20260903220659 | 94 | 251 | 0.0 | 5.0 | 0.00 | 0.00 | 0.00 | 53 | 1014.6 |
| 20260903220600 | 94 | 284 | 2.0 | 5.0 | 0.00 | 0.00 | 0.00 | 52 | 1014.5 |
| 20260903220458 | 94 | 142 | 2.0 | 5.0 | 0.00 | 0.00 | 0.00 | 53 | 1014.5 |
| 20260903220300 | 94 | 194 | 2.0 | 4.0 | 0.00 | 0.00 | 0.00 | 53 | 1014.4 |
| 20260903220159 | 94 | 344 | 2.0 | 4.0 | 0.00 | 0.00 | 0.00 | 53 | 1014.5 |
| 20260903220100 | 94 | 175 | 1.0 | 4.0 | 0.00 | 0.00 | 0.00 | 54 | 1014.6 |
| 20260903215959 | 94 | 265 | 0.0 | 4.0 | 0.00 | 0.00 | 0.00 | 53 | 1014.5 |
| 20260903215859 | 94 | 119 | 0.0 | 5.0 | 0.00 | 0.00 | 0.00 | 52 | 1014.5 |
| 20260903215759 | 94 | 289 | 0.0 | 5.0 | 0.00 | 0.00 | 0.00 | 52 | 1014.4 |
| 20260903215700 | 94 | 172 | 1.0 | 5.0 | 0.00 | 0.00 | 0.00 | 52 | 1014.5 |
| 20260903215558 | 94 | 172 | 2.0 | 5.0 | 0.00 | 0.00 | 0.00 | 53 | 1014.5 |
| 20260903215459 | 94 | 170 | 4.0 | 5.0 | 0.00 | 0.00 | 0.00 | 52 | 1014.5 |
| 20260903215400 | 94 | 217 | 0.0 | 5.0 | 0.00 | 0.00 | 0.00 | 53 | 1014.4 |
| 20260903215300 | 94 | 200 | 2.0 | 5.0 | 0.00 | 0.00 | 0.00 | 53 | 1014.4 |
| 20260903215159 | 94 | 249 | 0.0 | 6.0 | 0.00 | 0.00 | 0.00 | 53 | 1014.4 |
| 20260903215059 | 94 | 202 | 1.0 | 6.0 | 0.00 | 0.00 | 0.00 | 52 | 1014.4 |
| 20260903214959 | 94 | 202 | 3.0 | 6.0 | 0.00 | 0.00 | 0.00 | 53 | 1014.4 |
| 20260903214859 | 94 | 159 | 0.0 | 6.0 | 0.00 | 0.00 | 0.00 | 52 | 1014.4 |
| 20260903214800 | 94 | 163 | 0.0 | 6.0 | 0.00 | 0.00 | 0.00 | 52 | 1014.4 |
| 20260903214600 | 94 | 199 | 0.0 | 6.0 | 0.00 | 0.00 | 0.00 | 52 | 1014.4 |
| 20260903214459 | 94 | 277 | 0.0 | 6.0 | 0.00 | 0.00 | 0.00 | 53 | 1014.4 |
| 20260903214259 | 94 | 327 | 2.0 | 6.0 | 0.00 | 0.00 | 0.00 | 53 | 1014.5 |
| 20260903214159 | 94 | 219 | 1.0 | 6.0 | 0.00 | 0.00 | 0.00 | 52 | 1014.5 |
| 20260903214059 | 94 | 180 | 1.0 | 6.0 | 0.00 | 0.00 | 0.00 | 52 | 1014.5 |
| 20260903213959 | 94 | 184 | 1.0 | 6.0 | 0.00 | 0.00 | 0.00 | 52 | 1014.5 |
| 20260903213901 | 94 | 190 | 0.0 | 6.0 | 0.00 | 0.00 | 0.00 | 52 | 1014.5 |
| 20260903213759 | 94 | 306 | 1.0 | 6.0 | 0.00 | 0.00 | 0.00 | 51 | 1014.5 |
| 20260903213700 | 95 | 240 | 0.0 | 6.0 | 0.00 | 0.00 | 0.00 | 52 | 1014.6 |
| 20260903213559 | 95 | 176 | 0.0 | 6.0 | 0.00 | 0.00 | 0.00 | 51 | 1014.5 |
| 20260903213459 | 95 | 350 | 4.0 | 6.0 | 0.00 | 0.00 | 0.00 | 50 | 1014.5 |
| 20260903213359 | 95 | 175 | 1.0 | 6.0 | 0.00 | 0.00 | 0.00 | 51 | 1014.5 |
| 20260903213259 | 95 | 184 | 3.0 | 6.0 | 0.00 | 0.00 | 0.00 | 52 | 1014.4 |
| 20260903213201 | 95 | 30 | 0.0 | 6.0 | 0.00 | 0.00 | 0.00 | 50 | 1014.5 |
| 20260903213059 | 95 | 171 | 0.0 | 6.0 | 0.00 | 0.00 | 0.00 | 51 | 1014.5 |
| 20260903212959 | 95 | 200 | 0.0 | 6.0 | 0.00 | 0.00 | 0.00 | 50 | 1014.5 |
| 20260903212900 | 95 | 206 | 1.0 | 6.0 | 0.00 | 0.00 | 0.00 | 50 | 1014.5 |
| 20260903212759 | 95 | 176 | 2.0 | 7.0 | 0.00 | 0.00 | 0.00 | 50 | 1014.4 |
| 20260903212700 | 95 | 226 | 4.0 | 5.0 | 0.00 | 0.00 | 0.00 | 50 | 1014.5 |
| 20260903212600 | 95 | 177 | 0.0 | 5.0 | 0.00 | 0.00 | 0.00 | 50 | 1014.5 |
| 20260903212459 | 95 | 269 | 0.0 | 5.0 | 0.00 | 0.00 | 0.00 | 50 | 1014.4 |
| 20260903212359 | 96 | 176 | 1.0 | 6.0 | 0.00 | 0.00 | 0.00 | 51 | 1014.4 |
| 20260903212300 | 96 | 132 | 1.0 | 6.0 | 0.00 | 0.00 | 0.00 | 50 | 1014.5 |
| 20260903212159 | 95 | 194 | 1.0 | 6.0 | 0.00 | 0.00 | 0.00 | 50 | 1014.5 |
| 20260903211959 | 95 | 284 | 1.0 | 6.0 | 0.00 | 0.00 | 0.00 | 50 | 1014.4 |
| 20260903211859 | 95 | 196 | 1.0 | 6.0 | 0.00 | 0.00 | 0.00 | 51 | 1014.4 |
| 20260903211759 | 95 | 256 | 2.0 | 6.0 | 0.00 | 0.00 | 0.00 | 50 | 1014.5 |
| 20260903211701 | 95 | 208 | 0.0 | 6.0 | 0.00 | 0.00 | 0.00 | 51 | 1014.4 |
| 20260903211502 | 95 | 327 | 0.0 | 7.0 | 0.00 | 0.00 | 0.00 | 51 | 1014.4 |
| 20260903211259 | 95 | 319 | 0.0 | 9.0 | 0.00 | 0.00 | 0.00 | 51 | 1014.5 |
| 20260903211200 | 95 | 159 | 1.0 | 9.0 | 0.00 | 0.00 | 0.00 | 52 | 1014.4 |
| 20260903211100 | 95 | 212 | 1.0 | 9.0 | 0.00 | 0.00 | 0.00 | 51 | 1014.4 |
| 20260903210959 | 95 | 256 | 2.0 | 9.0 | 0.00 | 0.00 | 0.00 | 52 | 1014.4 |
| 20260903210900 | 95 | 196 | 1.0 | 9.0 | 0.00 | 0.00 | 0.00 | 52 | 1014.4 |
| 20260903210800 | 95 | 206 | 0.0 | 9.0 | 0.00 | 0.00 | 0.00 | 51 | 1014.5 |
| 20260903210659 | 95 | 250 | 1.0 | 9.0 | 0.00 | 0.00 | 0.00 | 51 | 1014.5 |
| 20260903210458 | 95 | 82 | 3.0 | 9.0 | 0.00 | 0.00 | 0.00 | 50 | 1014.6 |
| 20260903210359 | 95 | 200 | 9.0 | 10.0 | 0.00 | 0.00 | 0.00 | 51 | 1014.5 |
| 20260903210300 | 95 | 315 | 0.0 | 9.0 | 0.00 | 0.00 | 0.00 | 51 | 1014.5 |
| 20260903210201 | 95 | 134 | 3.0 | 9.0 | 0.00 | 0.00 | 0.00 | 50 | 1014.5 |
| 20260903205959 | 95 | 280 | 0.0 | 9.0 | 0.00 | 0.00 | 0.00 | 51 | 1014.5 |
| 20260903205859 | 95 | 162 | 10.0 | 10.0 | 0.00 | 0.00 | 0.00 | 50 | 1014.6 |
| 20260903205759 | 95 | 211 | 3.0 | 6.0 | 0.00 | 0.00 | 0.00 | 52 | 1014.5 |
| 20260903205701 | 95 | 184 | 2.0 | 6.0 | 0.00 | 0.00 | 0.00 | 51 | 1014.6 |
| 20260903205559 | 95 | 171 | 0.0 | 6.0 | 0.00 | 0.00 | 0.00 | 52 | 1014.6 |
| 20260903205501 | 95 | 130 | 1.0 | 6.0 | 0.00 | 0.00 | 0.00 | 52 | 1014.6 |
| 20260903205359 | 95 | 253 | 0.0 | 6.0 | 0.00 | 0.00 | 0.00 | 51 | 1014.6 |
| 20260903205201 | 95 | 199 | 1.0 | 8.0 | 0.00 | 0.00 | 0.00 | 50 | 1014.6 |
| 20260903205100 | 95 | 348 | 2.0 | 8.0 | 0.00 | 0.00 | 0.00 | 49 | 1014.6 |
| 20260903205000 | 96 | 174 | 6.0 | 8.0 | 0.00 | 0.00 | 0.00 | 50 | 1014.7 |
| 20260903204859 | 96 | 203 | 0.0 | 8.0 | 0.00 | 0.00 | 0.00 | 50 | 1014.7 |
| 20260903204759 | 96 | 139 | 3.0 | 8.0 | 0.00 | 0.00 | 0.00 | 49 | 1014.7 |
| 20260903204700 | 96 | 171 | 1.0 | 8.0 | 0.00 | 0.00 | 0.00 | 49 | 1014.8 |
| 20260903204601 | 96 | 238 | 2.0 | 8.0 | 0.00 | 0.00 | 0.00 | 50 | 1014.7 |
| 20260903204500 | 96 | 240 | 2.0 | 8.0 | 0.00 | 0.00 | 0.00 | 49 | 1014.8 |
| 20260903204359 | 96 | 270 | 3.0 | 8.0 | 0.00 | 0.00 | 0.00 | 50 | 1014.7 |
| 20260903204259 | 96 | 302 | 1.0 | 6.0 | 0.00 | 0.00 | 0.00 | 50 | 1014.8 |
| 20260903204159 | 96 | 263 | 2.0 | 6.0 | 0.00 | 0.00 | 0.00 | 50 | 1014.8 |
| 20260903204101 | 96 | 221 | 0.0 | 6.0 | 0.00 | 0.00 | 0.00 | 51 | 1014.7 |
| 20260903203858 | 96 | 180 | 0.0 | 6.0 | 0.00 | 0.00 | 0.00 | 50 | 1014.8 |
| 20260903203759 | 96 | 249 | 1.0 | 6.0 | 0.00 | 0.00 | 0.00 | 49 | 1014.8 |
| 20260903203701 | 96 | 205 | 6.0 | 6.0 | 0.00 | 0.00 | 0.00 | 50 | 1014.9 |
| 20260903203500 | 96 | 221 | 4.0 | 6.0 | 0.00 | 0.00 | 0.00 | 50 | 1014.8 |
| 20260903203359 | 96 | 200 | 0.0 | 7.0 | 0.00 | 0.00 | 0.00 | 49 | 1014.8 |
| 20260903203259 | 96 | 192 | 0.0 | 7.0 | 0.00 | 0.00 | 0.00 | 51 | 1014.8 |
| 20260903203159 | 96 | 237 | 0.0 | 7.0 | 0.00 | 0.00 | 0.00 | 51 | 1014.8 |
| 20260903203101 | 96 | 43 | 0.0 | 7.0 | 0.00 | 0.00 | 0.00 | 50 | 1014.8 |
| 20260903202900 | 96 | 173 | 1.0 | 7.0 | 0.00 | 0.00 | 0.00 | 50 | 1014.8 |
| 20260903202759 | 96 | 284 | 7.0 | 7.0 | 0.00 | 0.00 | 0.00 | 50 | 1014.9 |
| 20260903202659 | 96 | 131 | 4.0 | 6.0 | 0.00 | 0.00 | 0.00 | 50 | 1014.9 |
| 20260903202600 | 96 | 142 | 1.0 | 5.0 | 0.00 | 0.00 | 0.00 | 49 | 1014.9 |
| 20260903202501 | 96 | 298 | 1.0 | 8.0 | 0.00 | 0.00 | 0.00 | 50 | 1014.9 |
| 20260903202401 | 96 | 157 | 0.0 | 8.0 | 0.00 | 0.00 | 0.00 | 50 | 1014.9 |
| 20260903202259 | 96 | 224 | 2.0 | 8.0 | 0.00 | 0.00 | 0.00 | 50 | 1015.0 |
| 20260903202200 | 96 | 250 | 2.0 | 8.0 | 0.00 | 0.00 | 0.00 | 50 | 1015.0 |
| 20260903202059 | 96 | 155 | 0.0 | 8.0 | 0.00 | 0.00 | 0.00 | 50 | 1015.0 |
| 20260903202001 | 96 | 310 | 1.0 | 8.0 | 0.00 | 0.00 | 0.00 | 50 | 1015.1 |
| 20260903201902 | 96 | 213 | 0.0 | 8.0 | 0.00 | 0.00 | 0.00 | 51 | 1015.0 |
| 20260903201759 | 96 | 337 | 2.0 | 8.0 | 0.00 | 0.00 | 0.00 | 50 | 1015.1 |
| 20260903201601 | 96 | 149 | 5.0 | 8.0 | 0.00 | 0.00 | 0.00 | 49 | 1015.2 |
| 20260903201500 | 96 | 188 | 2.0 | 8.0 | 0.00 | 0.00 | 0.00 | 48 | 1015.1 |
| 20260903201401 | 97 | 152 | 4.0 | 8.0 | 0.00 | 0.00 | 0.00 | 47 | 1015.2 |
| 20260903201259 | 97 | 196 | 4.0 | 8.0 | 0.00 | 0.00 | 0.00 | 48 | 1015.2 |
| 20260903201159 | 97 | 184 | 7.0 | 7.0 | 0.00 | 0.00 | 0.00 | 50 | 1015.2 |
| 20260903200701 | 96 | 351 | 2.0 | 7.0 | 0.00 | 0.00 | 0.00 | 51 | 1015.3 |
| 20260903200559 | 96 | 337 | 2.0 | 7.0 | 0.00 | 0.00 | 0.00 | 50 | 1015.3 |
| 20260903200400 | 96 | 79 | 1.0 | 7.0 | 0.00 | 0.00 | 0.00 | 49 | 1015.3 |
| 20260903200259 | 96 | 188 | 1.0 | 7.0 | 0.00 | 0.00 | 0.00 | 49 | 1015.5 |
| 20260903200200 | 97 | 302 | 3.0 | 7.0 | 0.00 | 0.00 | 0.00 | 48 | 1015.5 |
| 20260903200000 | 97 | 157 | 3.0 | 5.0 | 0.00 | 0.00 | 0.00 | 48 | 1015.5 |
| 20260903195859 | 97 | 160 | 2.0 | 5.0 | 0.00 | 0.00 | 0.00 | 48 | 1015.5 |
| 20260903195759 | 97 | 74 | 1.0 | 5.0 | 0.00 | 0.00 | 0.00 | 49 | 1015.5 |
| 20260903195659 | 97 | 156 | 2.0 | 5.0 | 0.00 | 0.00 | 0.00 | 48 | 1015.6 |
| 20260903195602 | 97 | 170 | 5.0 | 8.0 | 0.00 | 0.00 | 0.00 | 48 | 1015.6 |
| 20260903195501 | 97 | 96 | 0.0 | 8.0 | 0.00 | 0.00 | 0.00 | 48 | 1015.6 |
| 20260903195401 | 97 | 224 | 0.0 | 8.0 | 0.00 | 0.00 | 0.00 | 48 | 1015.5 |
| 20260903195200 | 97 | 215 | 0.0 | 8.0 | 0.00 | 0.00 | 0.00 | 49 | 1015.6 |
| 20260903195059 | 97 | 318 | 0.0 | 8.0 | 0.00 | 0.00 | 0.00 | 49 | 1015.5 |
| 20260903195001 | 97 | 281 | 0.0 | 8.0 | 0.00 | 0.00 | 0.00 | 48 | 1015.7 |
| 20260903194859 | 97 | 211 | 2.0 | 8.0 | 0.00 | 0.00 | 0.00 | 48 | 1015.7 |
| 20260903194800 | 97 | 245 | 1.0 | 8.0 | 0.00 | 0.00 | 0.00 | 49 | 1015.7 |
| 20260903194659 | 97 | 296 | 4.0 | 8.0 | 0.00 | 0.00 | 0.00 | 48 | 1015.7 |
| 20260903194600 | 97 | 39 | 0.0 | 4.0 | 0.00 | 0.00 | 0.00 | 49 | 1015.7 |
| 20260903194459 | 97 | 18 | 0.0 | 4.0 | 0.00 | 0.00 | 0.00 | 49 | 1015.7 |
| 20260903194359 | 97 | 246 | 0.0 | 4.0 | 0.00 | 0.00 | 0.00 | 50 | 1015.7 |
| 20260903194300 | 97 | 100 | 0.0 | 6.0 | 0.00 | 0.00 | 0.00 | 49 | 1015.6 |
| 20260903194200 | 97 | 323 | 0.0 | 6.0 | 0.00 | 0.00 | 0.00 | 49 | 1015.6 |
| 20260903194059 | 97 | 175 | 3.0 | 6.0 | 0.00 | 0.00 | 0.00 | 49 | 1015.7 |
| 20260903193959 | 97 | 196 | 2.0 | 6.0 | 0.00 | 0.00 | 0.00 | 50 | 1015.6 |
| 20260903193900 | 97 | 348 | 1.0 | 8.0 | 0.00 | 0.00 | 0.00 | 49 | 1015.7 |
| 20260903193801 | 97 | 94 | 1.0 | 8.0 | 0.00 | 0.00 | 0.00 | 49 | 1015.6 |
| 20260903193659 | 97 | 360 | 0.0 | 8.0 | 0.00 | 0.00 | 0.00 | 49 | 1015.7 |
| 20260903193600 | 97 | 267 | 2.0 | 8.0 | 0.00 | 0.00 | 0.00 | 48 | 1015.7 |
| 20260903193500 | 97 | 207 | 6.0 | 8.0 | 0.00 | 0.00 | 0.00 | 49 | 1015.7 |
| 20260903193359 | 97 | 174 | 0.0 | 8.0 | 0.00 | 0.00 | 0.00 | 48 | 1015.7 |
| 20260903193303 | 97 | 327 | 0.0 | 8.0 | 0.00 | 0.00 | 0.00 | 49 | 1015.8 |
| 20260903193200 | 97 | 5 | 0.0 | 8.0 | 0.00 | 0.00 | 0.00 | 48 | 1015.9 |
| 20260903192959 | 97 | 286 | 6.0 | 6.0 | 0.00 | 0.00 | 0.00 | 49 | 1016.0 |
| 20260903192859 | 97 | 88 | 2.0 | 5.0 | 0.00 | 0.00 | 0.00 | 50 | 1016.0 |
| 20260903192802 | 97 | 283 | 0.0 | 3.0 | 0.00 | 0.00 | 0.00 | 48 | 1015.9 |
| 20260903192659 | 97 | 331 | 0.0 | 3.0 | 0.00 | 0.00 | 0.00 | 49 | 1016.0 |
| 20260903192601 | 97 | 198 | 0.0 | 3.0 | 0.00 | 0.00 | 0.00 | 49 | 1015.9 |
| 20260903192500 | 97 | 78 | 0.0 | 3.0 | 0.00 | 0.00 | 0.00 | 49 | 1016.0 |
| 20260903192400 | 97 | 189 | 0.0 | 3.0 | 0.00 | 0.00 | 0.00 | 48 | 1016.0 |
| 20260903192159 | 97 | 5 | 2.0 | 4.0 | 0.00 | 0.00 | 0.00 | 50 | 1016.0 |
| 20260903192100 | 97 | 323 | 0.0 | 4.0 | 0.00 | 0.00 | 0.00 | 49 | 1016.0 |
| 20260903192000 | 97 | 182 | 0.0 | 4.0 | 0.00 | 0.00 | 0.00 | 48 | 1016.0 |
| 20260903191859 | 97 | 340 | 1.0 | 4.0 | 0.00 | 0.00 | 0.00 | 48 | 1016.1 |
| 20260903191800 | 97 | 277 | 0.0 | 4.0 | 0.00 | 0.00 | 0.00 | 49 | 1016.1 |
| 20260903191700 | 97 | 173 | 0.0 | 4.0 | 0.00 | 0.00 | 0.00 | 49 | 1016.1 |
| 20260903191601 | 97 | 152 | 0.0 | 4.0 | 0.00 | 0.00 | 0.00 | 49 | 1016.1 |
| 20260903191500 | 97 | 30 | 0.0 | 4.0 | 0.00 | 0.00 | 0.00 | 49 | 1016.2 |
| 20260903191359 | 97 | 213 | 0.0 | 4.0 | 0.00 | 0.00 | 0.00 | 49 | 1016.2 |
| 20260903191259 | 98 | 360 | 0.0 | 4.0 | 0.00 | 0.00 | 0.00 | 49 | 1016.2 |
| 20260903191159 | 98 | 309 | 2.0 | 4.0 | 0.00 | 0.00 | 0.00 | 48 | 1016.2 |
| 20260903191059 | 98 | 325 | 0.0 | 4.0 | 0.00 | 0.00 | 0.00 | 48 | 1016.2 |
| 20260903190959 | 98 | 146 | 1.0 | 4.0 | 0.00 | 0.00 | 0.00 | 49 | 1016.2 |
| 20260903190801 | 97 | 144 | 0.0 | 4.0 | 0.00 | 0.00 | 0.00 | 50 | 1016.1 |
| 20260903190701 | 97 | 144 | 1.0 | 4.0 | 0.00 | 0.00 | 0.00 | 50 | 1016.1 |
| 20260903190559 | 97 | 314 | 1.0 | 5.0 | 0.00 | 0.00 | 0.00 | 51 | 1016.2 |
| 20260903190500 | 97 | 27 | 2.0 | 5.0 | 0.00 | 0.00 | 0.00 | 50 | 1016.1 |
| 20260903190300 | 97 | 338 | 2.0 | 5.0 | 0.00 | 0.00 | 0.00 | 50 | 1016.2 |
| 20260903190100 | 97 | 298 | 1.0 | 5.0 | 0.00 | 0.00 | 0.00 | 49 | 1016.2 |
| 20260903190001 | 97 | 188 | 0.0 | 7.0 | 0.00 | 0.00 | 0.00 | 49 | 1016.2 |
| 20260903185900 | 97 | 252 | 0.0 | 8.0 | 0.00 | 0.00 | 0.00 | 49 | 1016.2 |
| 20260903185802 | 97 | 217 | 1.0 | 8.0 | 0.00 | 0.00 | 0.00 | 49 | 1016.2 |
| 20260903185701 | 97 | 333 | 3.0 | 8.0 | 0.00 | 0.00 | 0.00 | 51 | 1016.2 |
| 20260903185600 | 97 | 337 | 0.0 | 8.0 | 0.00 | 0.00 | 0.00 | 51 | 1016.2 |
| 20260903185459 | 96 | 5 | 0.0 | 8.0 | 0.00 | 0.00 | 0.00 | 52 | 1016.2 |
| 20260903185359 | 96 | 344 | 0.0 | 8.0 | 0.00 | 0.00 | 0.00 | 51 | 1016.2 |
| 20260903185300 | 96 | 5 | 3.0 | 8.0 | 0.00 | 0.00 | 0.00 | 51 | 1016.2 |
| 20260903184958 | 96 | 284 | 0.0 | 3.0 | 0.00 | 0.00 | 0.00 | 50 | 1016.2 |
| 20260903184900 | 96 | 298 | 2.0 | 3.0 | 0.00 | 0.00 | 0.00 | 50 | 1016.3 |
| 20260903184659 | 96 | 167 | 3.0 | 3.0 | 0.00 | 0.00 | 0.00 | 51 | 1016.2 |
| 20260903184500 | 96 | 195 | 0.0 | 6.0 | 0.00 | 0.00 | 0.00 | 51 | 1016.2 |
| 20260903184401 | 96 | 336 | 1.0 | 6.0 | 0.00 | 0.00 | 0.00 | 51 | 1016.1 |
| 20260903184300 | 96 | 336 | 0.0 | 6.0 | 0.00 | 0.00 | 0.00 | 52 | 1016.1 |
| 20260903184159 | 96 | 62 | 0.0 | 6.0 | 0.00 | 0.00 | 0.00 | 51 | 1016.2 |
| 20260903184058 | 96 | 152 | 0.0 | 6.0 | 0.00 | 0.00 | 0.00 | 53 | 1016.2 |
| 20260903184000 | 96 | 355 | 0.0 | 6.0 | 0.00 | 0.00 | 0.00 | 52 | 1016.2 |
| 20260903183900 | 96 | 319 | 2.0 | 6.0 | 0.00 | 0.00 | 0.00 | 51 | 1016.2 |
| 20260903183801 | 96 | 207 | 0.0 | 6.0 | 0.00 | 0.00 | 0.00 | 51 | 1016.3 |
| 20260903183700 | 96 | 146 | 0.0 | 6.0 | 0.00 | 0.00 | 0.00 | 50 | 1016.3 |
| 20260903183600 | 96 | 270 | 2.0 | 4.0 | 0.00 | 0.00 | 0.00 | 50 | 1016.3 |
| 20260903183500 | 96 | 178 | 0.0 | 6.0 | 0.00 | 0.00 | 0.00 | 50 | 1016.3 |
| 20260903183359 | 96 | 171 | 1.0 | 7.0 | 0.00 | 0.00 | 0.00 | 50 | 1016.3 |
| 20260903183259 | 96 | 178 | 2.0 | 7.0 | 0.00 | 0.00 | 0.00 | 51 | 1016.2 |
| 20260903183200 | 96 | 242 | 1.0 | 7.0 | 0.00 | 0.00 | 0.00 | 53 | 1016.2 |
| 20260903183101 | 96 | 208 | 0.0 | 7.0 | 0.00 | 0.00 | 0.00 | 53 | 1016.2 |
| 20260903183001 | 96 | 355 | 1.0 | 7.0 | 0.00 | 0.00 | 0.00 | 52 | 1016.2 |
| 20260903182759 | 96 | 169 | 1.0 | 7.0 | 0.00 | 0.00 | 0.00 | 52 | 1016.3 |
| 20260903182700 | 96 | 290 | 1.0 | 7.0 | 0.00 | 0.00 | 0.00 | 50 | 1016.3 |
| 20260903182600 | 95 | 165 | 6.0 | 7.0 | 0.00 | 0.00 | 0.00 | 51 | 1016.2 |
| 20260903182459 | 95 | 149 | 3.0 | 5.0 | 0.00 | 0.00 | 0.00 | 52 | 1016.3 |
| 20260903182259 | 95 | 196 | 2.0 | 5.0 | 0.00 | 0.00 | 0.00 | 52 | 1016.3 |
| 20260903182159 | 95 | 270 | 1.0 | 4.0 | 0.00 | 0.00 | 0.00 | 53 | 1016.4 |
| 20260903182101 | 95 | 355 | 1.0 | 4.0 | 0.00 | 0.00 | 0.00 | 53 | 1016.4 |
| 20260903181959 | 95 | 336 | 0.0 | 4.0 | 0.00 | 0.00 | 0.00 | 53 | 1016.4 |
| 20260903181901 | 95 | 144 | 2.0 | 4.0 | 0.00 | 0.00 | 0.00 | 51 | 1016.3 |
| 20260903181759 | 95 | 229 | 1.0 | 5.0 | 0.00 | 0.00 | 0.00 | 52 | 1016.4 |
| 20260903181659 | 95 | 250 | 3.0 | 5.0 | 0.00 | 0.00 | 0.00 | 51 | 1016.4 |
| 20260903181601 | 95 | 169 | 1.0 | 5.0 | 0.00 | 0.00 | 0.00 | 52 | 1016.4 |
| 20260903181359 | 95 | 281 | 2.0 | 5.0 | 0.00 | 0.00 | 0.00 | 52 | 1016.4 |
| 20260903181259 | 95 | 109 | 1.0 | 9.0 | 0.00 | 0.00 | 0.00 | 51 | 1016.4 |
| 20260903181159 | 95 | 170 | 0.0 | 9.0 | 0.00 | 0.00 | 0.00 | 52 | 1016.4 |
| 20260903181059 | 95 | 172 | 0.0 | 9.0 | 0.00 | 0.00 | 0.00 | 52 | 1016.4 |
| 20260903180958 | 95 | 315 | 1.0 | 9.0 | 0.00 | 0.00 | 0.00 | 53 | 1016.4 |
| 20260903180900 | 95 | 332 | 4.0 | 9.0 | 0.00 | 0.00 | 0.00 | 52 | 1016.4 |
| 20260903180801 | 95 | 203 | 1.0 | 9.0 | 0.00 | 0.00 | 0.00 | 51 | 1016.5 |
| 20260903180700 | 95 | 184 | 4.0 | 9.0 | 0.00 | 0.00 | 0.00 | 52 | 1016.4 |
| 20260903180602 | 95 | 244 | 1.0 | 9.0 | 0.00 | 0.00 | 0.00 | 52 | 1016.4 |
| 20260903180359 | 95 | 285 | 1.0 | 9.0 | 0.00 | 0.00 | 0.00 | 54 | 1016.5 |
| 20260903180259 | 95 | 255 | 3.0 | 9.0 | 0.00 | 0.00 | 0.00 | 54 | 1016.5 |
| 20260903180201 | 95 | 263 | 0.0 | 9.0 | 0.00 | 0.00 | 0.00 | 52 | 1016.5 |
| 20260903180100 | 95 | 186 | 4.0 | 9.0 | 0.00 | 0.00 | 0.00 | 52 | 1016.4 |
| 20260903180003 | 95 | 278 | 0.0 | 9.0 | 0.00 | 0.00 | 0.00 | 51 | 1016.4 |
| 20260903175759 | 95 | 205 | 3.0 | 9.0 | 0.00 | 0.00 | 0.00 | 50 | 1016.5 |
| 20260903175659 | 95 | 21 | 2.0 | 9.0 | 0.00 | 0.00 | 0.00 | 51 | 1016.5 |
| 20260903175559 | 95 | 195 | 4.0 | 9.0 | 0.00 | 0.00 | 0.00 | 50 | 1016.6 |
| 20260903175500 | 95 | 246 | 4.0 | 9.0 | 0.00 | 0.00 | 0.00 | 51 | 1016.5 |
| 20260903175359 | 95 | 198 | 3.0 | 6.0 | 0.00 | 0.00 | 0.00 | 51 | 1016.5 |
| 20260903175259 | 95 | 224 | 5.0 | 6.0 | 0.00 | 0.00 | 0.00 | 53 | 1016.5 |
| 20260903175200 | 95 | 197 | 3.0 | 6.0 | 0.00 | 0.00 | 0.00 | 51 | 1016.5 |
| 20260903175100 | 95 | 188 | 3.0 | 6.0 | 0.00 | 0.00 | 0.00 | 50 | 1016.6 |
| 20260903174959 | 95 | 183 | 4.0 | 7.0 | 0.00 | 0.00 | 0.00 | 51 | 1016.5 |
| 20260903174859 | 95 | 192 | 3.0 | 7.0 | 0.00 | 0.00 | 0.00 | 52 | 1016.6 |
| 20260903174759 | 95 | 185 | 4.0 | 6.0 | 0.00 | 0.00 | 0.00 | 52 | 1016.5 |
| 20260903174659 | 95 | 190 | 4.0 | 5.0 | 0.00 | 0.00 | 0.00 | 52 | 1016.6 |
| 20260903174459 | 95 | 326 | 1.0 | 6.0 | 0.00 | 0.00 | 0.00 | 53 | 1016.6 |
| 20260903174359 | 95 | 319 | 0.0 | 6.0 | 0.00 | 0.00 | 0.00 | 53 | 1016.6 |
| 20260903174159 | 95 | 131 | 0.0 | 6.0 | 0.00 | 0.00 | 0.00 | 52 | 1016.6 |
| 20260903174059 | 95 | 201 | 1.0 | 6.0 | 0.00 | 0.00 | 0.00 | 52 | 1016.6 |
| 20260903173959 | 95 | 164 | 5.0 | 6.0 | 0.00 | 0.00 | 0.00 | 53 | 1016.6 |
| 20260903173900 | 95 | 193 | 0.0 | 6.0 | 0.00 | 0.00 | 0.00 | 54 | 1016.7 |
| 20260903173801 | 95 | 175 | 1.0 | 6.0 | 0.00 | 0.00 | 0.00 | 53 | 1016.6 |
| 20260903173659 | 95 | 279 | 1.0 | 6.0 | 0.00 | 0.00 | 0.00 | 53 | 1016.8 |
| 20260903173500 | 95 | 119 | 2.0 | 7.0 | 0.00 | 0.00 | 0.00 | 53 | 1016.7 |
| 20260903173358 | 95 | 279 | 0.0 | 4.0 | 0.00 | 0.00 | 0.00 | 54 | 1016.7 |
| 20260903173300 | 95 | 187 | 1.0 | 4.0 | 0.00 | 0.00 | 0.00 | 52 | 1016.7 |
| 20260903173159 | 95 | 171 | 0.0 | 4.0 | 0.00 | 0.00 | 0.00 | 54 | 1016.7 |
| 20260903173059 | 94 | 341 | 0.0 | 4.0 | 0.00 | 0.00 | 0.00 | 52 | 1016.7 |
| 20260903172901 | 94 | 143 | 1.0 | 4.0 | 0.00 | 0.00 | 0.00 | 54 | 1016.7 |
| 20260903172659 | 94 | 339 | 0.0 | 7.0 | 0.00 | 0.00 | 0.00 | 54 | 1016.8 |
| 20260903172559 | 94 | 242 | 0.0 | 7.0 | 0.00 | 0.00 | 0.00 | 54 | 1016.8 |
| 20260903172501 | 94 | 328 | 0.0 | 7.0 | 0.00 | 0.00 | 0.00 | 55 | 1016.8 |
| 20260903172259 | 94 | 219 | 1.0 | 7.0 | 0.00 | 0.00 | 0.00 | 55 | 1016.9 |
| 20260903172200 | 94 | 329 | 0.0 | 7.0 | 0.00 | 0.00 | 0.00 | 54 | 1016.8 |
| 20260903172058 | 94 | 140 | 2.0 | 7.0 | 0.00 | 0.00 | 0.00 | 56 | 1016.8 |
| 20260903171959 | 94 | 69 | 1.0 | 7.0 | 0.00 | 0.00 | 0.00 | 54 | 1016.9 |
| 20260903171859 | 94 | 133 | 1.0 | 7.0 | 0.00 | 0.00 | 0.00 | 54 | 1016.9 |
| 20260903171801 | 94 | 180 | 6.0 | 7.0 | 0.00 | 0.00 | 0.00 | 54 | 1016.8 |
| 20260903171700 | 94 | 184 | 5.0 | 6.0 | 0.00 | 0.00 | 0.00 | 53 | 1016.9 |
| 20260903171559 | 94 | 167 | 1.0 | 6.0 | 0.00 | 0.00 | 0.00 | 55 | 1016.9 |
| 20260903171459 | 94 | 193 | 2.0 | 6.0 | 0.00 | 0.00 | 0.00 | 55 | 1016.9 |
| 20260903171359 | 94 | 268 | 2.0 | 6.0 | 0.00 | 0.00 | 0.00 | 55 | 1016.9 |
| 20260903171259 | 94 | 189 | 4.0 | 6.0 | 0.00 | 0.00 | 0.00 | 56 | 1016.9 |
| 20260903171200 | 94 | 175 | 2.0 | 6.0 | 0.00 | 0.00 | 0.00 | 57 | 1016.9 |
| 20260903171059 | 94 | 197 | 0.0 | 6.0 | 0.00 | 0.00 | 0.00 | 59 | 1016.9 |
| 20260903170901 | 93 | 146 | 0.0 | 6.0 | 0.00 | 0.00 | 0.00 | 57 | 1016.9 |
| 20260903170700 | 93 | 221 | 0.0 | 9.0 | 0.00 | 0.00 | 0.00 | 57 | 1016.9 |
| 20260903170558 | 93 | 251 | 2.0 | 9.0 | 0.00 | 0.00 | 0.00 | 57 | 1017.0 |
| 20260903170459 | 93 | 172 | 0.0 | 9.0 | 0.00 | 0.00 | 0.00 | 58 | 1016.9 |
| 20260903170359 | 93 | 186 | 0.0 | 9.0 | 0.00 | 0.00 | 0.00 | 56 | 1017.0 |
| 20260903170000 | 93 | 155 | 1.0 | 9.0 | 0.00 | 0.00 | 0.00 | 55 | 1017.0 |
| 20260903165800 | 94 | 173 | 3.0 | 7.0 | 0.00 | 0.00 | 0.00 | 57 | 1017.1 |
| 20260903165659 | 94 | 185 | 2.0 | 7.0 | 0.00 | 0.00 | 0.00 | 57 | 1017.1 |
| 20260903165458 | 94 | 148 | 1.0 | 7.0 | 0.00 | 0.00 | 0.00 | 58 | 1017.1 |
| 20260903165401 | 94 | 214 | 0.0 | 7.0 | 0.00 | 0.00 | 0.00 | 57 | 1017.1 |
| 20260903165300 | 94 | 244 | 1.0 | 7.0 | 0.00 | 0.00 | 0.00 | 57 | 1017.1 |
| 20260903165100 | 93 | 300 | 0.0 | 5.0 | 0.00 | 0.00 | 0.00 | 58 | 1017.1 |
| 20260903164959 | 93 | 196 | 0.0 | 5.0 | 0.00 | 0.00 | 0.00 | 59 | 1017.2 |
| 20260903164858 | 93 | 129 | 0.0 | 5.0 | 0.00 | 0.00 | 0.00 | 57 | 1017.2 |
| 20260903164758 | 93 | 198 | 4.0 | 5.0 | 0.00 | 0.00 | 0.00 | 57 | 1017.2 |
| 20260903164500 | 93 | 10 | 2.0 | 5.0 | 0.00 | 0.00 | 0.00 | 59 | 1017.2 |
| 20260903164400 | 93 | 173 | 0.0 | 5.0 | 0.00 | 0.00 | 0.00 | 60 | 1017.2 |
| 20260903164300 | 92 | 73 | 0.0 | 5.0 | 0.00 | 0.00 | 0.00 | 60 | 1017.2 |
| 20260903164200 | 92 | 88 | 2.0 | 5.0 | 0.00 | 0.00 | 0.00 | 60 | 1017.2 |
| 20260903164001 | 92 | 13 | 1.0 | 5.0 | 0.00 | 0.00 | 0.00 | 60 | 1017.2 |
| 20260903163859 | 92 | 164 | 1.0 | 6.0 | 0.00 | 0.00 | 0.00 | 60 | 1017.2 |
| 20260903163759 | 92 | 192 | 0.0 | 6.0 | 0.00 | 0.00 | 0.00 | 59 | 1017.2 |
| 20260903163659 | 92 | 187 | 1.0 | 9.0 | 0.00 | 0.00 | 0.00 | 58 | 1017.3 |
| 20260903163558 | 92 | 201 | 2.0 | 9.0 | 0.00 | 0.00 | 0.00 | 57 | 1017.3 |
| 20260903163459 | 92 | 178 | 3.0 | 9.0 | 0.00 | 0.00 | 0.00 | 58 | 1017.3 |
| 20260903163400 | 92 | 184 | 4.0 | 9.0 | 0.00 | 0.00 | 0.00 | 58 | 1017.3 |
| 20260903163259 | 92 | 173 | 2.0 | 9.0 | 0.00 | 0.00 | 0.00 | 58 | 1017.3 |
| 20260903163159 | 92 | 182 | 3.0 | 9.0 | 0.00 | 0.00 | 0.00 | 59 | 1017.3 |
| 20260903163101 | 92 | 111 | 2.0 | 9.0 | 0.00 | 0.00 | 0.00 | 57 | 1017.3 |
| 20260903162959 | 93 | 179 | 3.0 | 9.0 | 0.00 | 0.00 | 0.00 | 57 | 1017.3 |
| 20260903162859 | 93 | 180 | 5.0 | 9.0 | 0.00 | 0.00 | 0.00 | 58 | 1017.3 |
| 20260903162800 | 93 | 173 | 5.0 | 8.0 | 0.00 | 0.00 | 0.00 | 57 | 1017.3 |
| 20260903162659 | 93 | 188 | 2.0 | 6.0 | 0.00 | 0.00 | 0.00 | 57 | 1017.4 |
| 20260903162559 | 93 | 148 | 4.0 | 6.0 | 0.00 | 0.00 | 0.00 | 57 | 1017.4 |
| 20260903162359 | 93 | 250 | 0.0 | 6.0 | 0.00 | 0.00 | 0.00 | 57 | 1017.4 |
| 20260903162159 | 93 | 163 | 1.0 | 6.0 | 0.00 | 0.00 | 0.00 | 56 | 1017.5 |
| 20260903162058 | 93 | 156 | 1.0 | 6.0 | 0.00 | 0.00 | 0.00 | 56 | 1017.4 |
| 20260903161959 | 93 | 200 | 2.0 | 5.0 | 0.00 | 0.00 | 0.00 | 57 | 1017.4 |
| 20260903161759 | 93 | 259 | 0.0 | 5.0 | 0.00 | 0.00 | 0.00 | 56 | 1017.4 |
| 20260903161658 | 93 | 191 | 0.0 | 5.0 | 0.00 | 0.00 | 0.00 | 56 | 1017.4 |
| 20260903161600 | 93 | 264 | 1.0 | 5.0 | 0.00 | 0.00 | 0.00 | 55 | 1017.5 |
| 20260903161459 | 93 | 342 | 1.0 | 3.0 | 0.00 | 0.00 | 0.00 | 56 | 1017.4 |
| 20260903161400 | 93 | 190 | 0.0 | 3.0 | 0.00 | 0.00 | 0.00 | 57 | 1017.4 |
| 20260903161300 | 93 | 181 | 0.0 | 3.0 | 0.00 | 0.00 | 0.00 | 56 | 1017.5 |
| 20260903161159 | 93 | 232 | 0.0 | 3.0 | 0.00 | 0.00 | 0.00 | 56 | 1017.5 |
| 20260903161101 | 93 | 115 | 0.0 | 3.0 | 0.00 | 0.00 | 0.00 | 57 | 1017.4 |
| 20260903160959 | 93 | 194 | 0.0 | 3.0 | 0.00 | 0.00 | 0.00 | 57 | 1017.5 |
| 20260903160859 | 93 | 188 | 1.0 | 3.0 | 0.00 | 0.00 | 0.00 | 57 | 1017.5 |
| 20260903160759 | 93 | 169 | 0.0 | 4.0 | 0.00 | 0.00 | 0.00 | 57 | 1017.5 |
| 20260903160659 | 93 | 191 | 3.0 | 4.0 | 0.00 | 0.00 | 0.00 | 57 | 1017.4 |
| 20260903160359 | 93 | 105 | 0.0 | 4.0 | 0.00 | 0.00 | 0.00 | 58 | 1017.4 |
| 20260903160303 | 93 | 315 | 0.0 | 7.0 | 0.00 | 0.00 | 0.00 | 57 | 1017.4 |
| 20260903160200 | 93 | 195 | 1.0 | 7.0 | 0.00 | 0.00 | 0.00 | 56 | 1017.5 |
| 20260903160100 | 93 | 302 | 0.0 | 7.0 | 0.00 | 0.00 | 0.00 | 56 | 1017.5 |
| 20260903160001 | 93 | 175 | 1.0 | 7.0 | 0.00 | 0.00 | 0.00 | 55 | 1017.5 |
| 20260903155900 | 93 | 176 | 4.0 | 7.0 | 0.00 | 0.00 | 0.00 | 57 | 1017.4 |
| 20260903155800 | 93 | 269 | 1.0 | 7.0 | 0.00 | 0.00 | 0.00 | 56 | 1017.5 |
| 20260903155659 | 93 | 283 | 1.0 | 7.0 | 0.00 | 0.00 | 0.00 | 56 | 1017.5 |
| 20260903155558 | 93 | 208 | 0.0 | 7.0 | 0.00 | 0.00 | 0.00 | 57 | 1017.5 |
| 20260903155500 | 93 | 285 | 3.0 | 7.0 | 0.00 | 0.00 | 0.00 | 56 | 1017.5 |
| 20260903155400 | 93 | 155 | 1.0 | 6.0 | 0.00 | 0.00 | 0.00 | 55 | 1017.5 |
| 20260903155258 | 93 | 183 | 3.0 | 6.0 | 0.00 | 0.00 | 0.00 | 57 | 1017.5 |
| 20260903155059 | 93 | 331 | 3.0 | 6.0 | 0.00 | 0.00 | 0.00 | 58 | 1017.4 |
| 20260903154959 | 92 | 215 | 0.0 | 6.0 | 0.00 | 0.00 | 0.00 | 58 | 1017.5 |
| 20260903154759 | 92 | 84 | 0.0 | 6.0 | 0.00 | 0.00 | 0.00 | 57 | 1017.5 |
| 20260903154658 | 92 | 245 | 0.0 | 6.0 | 0.00 | 0.00 | 0.00 | 57 | 1017.4 |
| 20260903154559 | 92 | 143 | 3.0 | 6.0 | 0.00 | 0.00 | 0.00 | 58 | 1017.4 |
| 20260903154459 | 92 | 302 | 0.0 | 6.0 | 0.00 | 0.00 | 0.00 | 57 | 1017.5 |
| 20260903154400 | 93 | 169 | 1.0 | 6.0 | 0.00 | 0.00 | 0.00 | 57 | 1017.4 |
| 20260903154259 | 92 | 290 | 3.0 | 3.0 | 0.00 | 0.00 | 0.00 | 59 | 1017.4 |
| 20260903154159 | 92 | 196 | 1.0 | 3.0 | 0.00 | 0.00 | 0.00 | 58 | 1017.4 |
| 20260903154059 | 92 | 349 | 0.0 | 5.0 | 0.00 | 0.00 | 0.00 | 57 | 1017.4 |
| 20260903154000 | 92 | 284 | 2.0 | 5.0 | 0.00 | 0.00 | 0.00 | 59 | 1017.4 |
| 20260903153859 | 92 | 178 | 0.0 | 5.0 | 0.00 | 0.00 | 0.00 | 59 | 1017.5 |
| 20260903153801 | 92 | 177 | 1.0 | 5.0 | 0.00 | 0.00 | 0.00 | 58 | 1017.5 |
| 20260903153700 | 92 | 298 | 0.0 | 5.0 | 0.00 | 0.00 | 0.00 | 60 | 1017.4 |
| 20260903153600 | 92 | 331 | 0.0 | 5.0 | 0.00 | 0.00 | 0.00 | 60 | 1017.5 |
| 20260903153500 | 92 | 28 | 0.0 | 5.0 | 0.00 | 0.00 | 0.00 | 61 | 1017.4 |
| 20260903153359 | 92 | 329 | 0.0 | 5.0 | 0.00 | 0.00 | 0.00 | 60 | 1017.4 |
| 20260903153200 | 92 | 200 | 3.0 | 5.0 | 0.00 | 0.00 | 0.00 | 60 | 1017.4 |
| 20260903153101 | 92 | 324 | 0.0 | 5.0 | 0.00 | 0.00 | 0.00 | 61 | 1017.4 |
| 20260903152959 | 92 | 17 | 2.0 | 5.0 | 0.00 | 0.00 | 0.00 | 60 | 1017.4 |
| 20260903152900 | 92 | 163 | 4.0 | 5.0 | 0.00 | 0.00 | 0.00 | 60 | 1017.4 |
| 20260903152759 | 92 | 158 | 5.0 | 5.0 | 0.00 | 0.00 | 0.00 | 61 | 1017.4 |
| 20260903152659 | 92 | 200 | 1.0 | 5.0 | 0.00 | 0.00 | 0.00 | 60 | 1017.5 |
| 20260903152559 | 92 | 216 | 4.0 | 5.0 | 0.00 | 0.00 | 0.00 | 60 | 1017.6 |
| 20260903152500 | 92 | 68 | 0.0 | 4.0 | 0.00 | 0.00 | 0.00 | 59 | 1017.4 |
| 20260903152359 | 92 | 146 | 0.0 | 4.0 | 0.00 | 0.00 | 0.00 | 59 | 1017.5 |
| 20260903152300 | 92 | 184 | 2.0 | 3.0 | 0.00 | 0.00 | 0.00 | 60 | 1017.5 |
| 20260903152102 | 92 | 158 | 0.0 | 4.0 | 0.00 | 0.00 | 0.00 | 60 | 1017.5 |
| 20260903151959 | 91 | 355 | 0.0 | 4.0 | 0.00 | 0.00 | 0.00 | 60 | 1017.5 |
| 20260903151859 | 91 | 197 | 1.0 | 4.0 | 0.00 | 0.00 | 0.00 | 60 | 1017.5 |
| 20260903151800 | 91 | 311 | 0.0 | 4.0 | 0.00 | 0.00 | 0.00 | 60 | 1017.5 |
| 20260903151558 | 91 | 38 | 0.0 | 4.0 | 0.00 | 0.00 | 0.00 | 60 | 1017.5 |
| 20260903151359 | 91 | 165 | 0.0 | 4.0 | 0.00 | 0.00 | 0.00 | 61 | 1017.4 |
| 20260903151259 | 91 | 300 | 0.0 | 4.0 | 0.00 | 0.00 | 0.00 | 61 | 1017.5 |
| 20260903151200 | 91 | 266 | 4.0 | 4.0 | 0.00 | 0.00 | 0.00 | 60 | 1017.5 |
| 20260903151059 | 91 | 184 | 0.0 | 4.0 | 0.00 | 0.00 | 0.00 | 60 | 1017.4 |
| 20260903150959 | 91 | 159 | 2.0 | 5.0 | 0.00 | 0.00 | 0.00 | 61 | 1017.4 |
| 20260903150859 | 91 | 311 | 1.0 | 5.0 | 0.00 | 0.00 | 0.00 | 60 | 1017.4 |
| 20260903150659 | 91 | 181 | 0.0 | 5.0 | 0.00 | 0.00 | 0.00 | 62 | 1017.4 |
| 20260903150301 | 91 | 196 | 3.0 | 5.0 | 0.00 | 0.00 | 0.00 | 59 | 1017.4 |
| 20260903150200 | 91 | 174 | 2.0 | 6.0 | 0.00 | 0.00 | 0.00 | 60 | 1017.4 |
| 20260903150101 | 91 | 355 | 2.0 | 4.0 | 0.00 | 0.00 | 0.00 | 60 | 1017.4 |
| 20260903145959 | 91 | 153 | 1.0 | 3.0 | 0.00 | 0.00 | 0.00 | 60 | 1017.4 |
| 20260903145858 | 91 | 238 | 0.0 | 3.0 | 0.00 | 0.00 | 0.00 | 61 | 1017.4 |
| 20260903145802 | 91 | 211 | 1.0 | 3.0 | 0.00 | 0.00 | 0.00 | 61 | 1017.4 |